| time (UTC) | temp C | wind direction | speed KPH | gust KPH | rain 1hr cm | rain 24hr cm | rain mn cm | humidity % | barometer mb |
| 20260502232633 | 9 | 99 | 6.4 | 11.3 | 0.00 | 0.00 | 0.00 | 73 | 1018.0 |
| 20260502232557 | 10 | 97 | 8.0 | 11.3 | 0.00 | 0.00 | 0.00 | 73 | 1018.3 |
| 20260502232501 | 10 | 99 | 8.0 | 11.3 | 0.00 | 0.00 | 0.00 | 72 | 1018.4 |
| 20260502232341 | 10 | 91 | 6.4 | 9.7 | 0.00 | 0.00 | 0.00 | 72 | 1018.4 |
| 20260502232212 | 10 | 97 | 6.4 | 12.9 | 0.00 | 0.00 | 0.00 | 72 | 1018.4 |
| 20260502232056 | 10 | 109 | 6.4 | 12.9 | 0.00 | 0.00 | 0.00 | 72 | 1018.4 |
| 20260502232000 | 10 | 109 | 6.4 | 12.9 | 0.00 | 0.00 | 0.00 | 72 | 1018.4 |
| 20260502231821 | 10 | 121 | 4.8 | 12.9 | 0.00 | 0.00 | 0.00 | 72 | 1018.4 |
| 20260502231714 | 10 | 104 | 4.8 | 12.9 | 0.00 | 0.00 | 0.00 | 72 | 1018.4 |
| 20260502231618 | 10 | 93 | 6.4 | 12.9 | 0.00 | 0.00 | 0.00 | 72 | 1018.4 |
| 20260502231519 | 10 | 81 | 6.4 | 12.9 | 0.00 | 0.00 | 0.00 | 72 | 1018.4 |
| 20260502231356 | 10 | 89 | 8.0 | 12.9 | 0.00 | 0.00 | 0.00 | 73 | 1018.4 |
| 20260502231258 | 10 | 93 | 6.4 | 11.3 | 0.00 | 0.00 | 0.00 | 73 | 1018.4 |
| 20260502231200 | 10 | 96 | 6.4 | 11.3 | 0.00 | 0.00 | 0.00 | 73 | 1018.4 |
| 20260502231040 | 10 | 92 | 6.4 | 11.3 | 0.00 | 0.00 | 0.00 | 73 | 1018.4 |
| 20260502231018 | 10 | 97 | 6.4 | 11.3 | 0.00 | 0.00 | 0.00 | 73 | 1018.1 |
| 20260502230933 | 10 | 96 | 6.4 | 11.3 | 0.00 | 0.00 | 0.00 | 73 | 1018.4 |
| 20260502230837 | 10 | 103 | 6.4 | 11.3 | 0.00 | 0.00 | 0.00 | 72 | 1018.4 |
| 20260502230740 | 10 | 89 | 6.4 | 9.7 | 0.00 | 0.00 | 0.00 | 73 | 1018.4 |
| 20260502230639 | 10 | 70 | 6.4 | 12.9 | 0.00 | 0.00 | 0.00 | 73 | 1018.4 |
| 20260502230538 | 10 | 76 | 6.4 | 12.9 | 0.00 | 0.00 | 0.00 | 73 | 1018.5 |
| 20260502230420 | 10 | 77 | 6.4 | 12.9 | 0.00 | 0.00 | 0.00 | 72 | 1018.4 |
| 20260502230314 | 10 | 88 | 6.4 | 12.9 | 0.00 | 0.00 | 0.00 | 71 | 1018.5 |
| 20260502230216 | 10 | 81 | 6.4 | 12.9 | 0.00 | 0.00 | 0.00 | 71 | 1018.5 |
| 20260502230034 | 10 | 76 | 6.4 | 12.9 | 0.00 | 0.00 | 0.00 | 70 | 1018.5 |
| 20260502225941 | 10 | 78 | 9.7 | 12.9 | 0.00 | 0.00 | 0.00 | 70 | 1018.5 |
| 20260502225812 | 10 | 101 | 8.0 | 12.9 | 0.00 | 0.00 | 0.00 | 70 | 1018.5 |
| 20260502225711 | 10 | 87 | 6.4 | 11.3 | 0.00 | 0.00 | 0.00 | 70 | 1018.5 |
| 20260502225615 | 10 | 99 | 6.4 | 8.0 | 0.00 | 0.00 | 0.00 | 69 | 1018.6 |
| 20260502225549 | 10 | 94 | 6.4 | 8.0 | 0.00 | 0.00 | 0.00 | 69 | 1018.2 |
| 20260502225507 | 10 | 76 | 6.4 | 8.0 | 0.00 | 0.00 | 0.00 | 69 | 1018.5 |
| 20260502225409 | 10 | 45 | 6.4 | 8.0 | 0.00 | 0.00 | 0.00 | 69 | 1018.6 |
| 20260502225312 | 10 | 73 | 6.4 | 8.0 | 0.00 | 0.00 | 0.00 | 69 | 1018.5 |
| 20260502225210 | 10 | 83 | 4.8 | 9.7 | 0.00 | 0.00 | 0.00 | 68 | 1018.5 |
| 20260502225113 | 10 | 83 | 4.8 | 9.7 | 0.00 | 0.00 | 0.00 | 68 | 1018.6 |
| 20260502225014 | 10 | 88 | 4.8 | 9.7 | 0.00 | 0.00 | 0.00 | 67 | 1018.6 |
| 20260502224919 | 11 | 81 | 4.8 | 9.7 | 0.00 | 0.00 | 0.00 | 67 | 1018.6 |
| 20260502224811 | 11 | 85 | 4.8 | 9.7 | 0.00 | 0.00 | 0.00 | 67 | 1018.6 |
| 20260502224714 | 11 | 88 | 4.8 | 9.7 | 0.00 | 0.00 | 0.00 | 66 | 1018.7 |
| 20260502224621 | 11 | 85 | 4.8 | 12.9 | 0.00 | 0.00 | 0.00 | 66 | 1018.6 |
| 20260502224550 | 11 | 83 | 4.8 | 12.9 | 0.00 | 0.00 | 0.00 | 66 | 1018.3 |
| 20260502224452 | 11 | 97 | 6.4 | 12.9 | 0.00 | 0.00 | 0.00 | 66 | 1018.7 |
| 20260502224355 | 11 | 89 | 6.4 | 12.9 | 0.00 | 0.00 | 0.00 | 65 | 1018.7 |
| 20260502224213 | 11 | 83 | 6.4 | 12.9 | 0.00 | 0.00 | 0.00 | 65 | 1018.7 |
| 20260502224138 | 11 | 75 | 4.8 | 12.9 | 0.00 | 0.00 | 0.00 | 65 | 1018.4 |
| 20260502224101 | 11 | 91 | 6.4 | 12.9 | 0.00 | 0.00 | 0.00 | 65 | 1018.7 |
| 20260502224004 | 11 | 91 | 8.0 | 12.9 | 0.00 | 0.00 | 0.00 | 65 | 1018.7 |
| 20260502223847 | 11 | 84 | 8.0 | 12.9 | 0.00 | 0.00 | 0.00 | 65 | 1018.7 |
| 20260502223755 | 11 | 85 | 8.0 | 11.3 | 0.00 | 0.00 | 0.00 | 64 | 1018.7 |
| 20260502223650 | 11 | 80 | 6.4 | 9.7 | 0.00 | 0.00 | 0.00 | 64 | 1018.7 |
| 20260502223532 | 11 | 85 | 6.4 | 9.7 | 0.00 | 0.00 | 0.00 | 64 | 1018.7 |
| 20260502223506 | 11 | 88 | 6.4 | 9.7 | 0.00 | 0.00 | 0.00 | 64 | 1018.4 |
| 20260502223426 | 11 | 91 | 6.4 | 9.7 | 0.00 | 0.00 | 0.00 | 64 | 1018.7 |
| 20260502223304 | 11 | 97 | 4.8 | 9.7 | 0.00 | 0.00 | 0.00 | 65 | 1018.7 |
| 20260502223205 | 11 | 85 | 4.8 | 9.7 | 0.00 | 0.00 | 0.00 | 65 | 1018.7 |
| 20260502223112 | 11 | 97 | 4.8 | 8.0 | 0.00 | 0.00 | 0.00 | 65 | 1018.7 |
| 20260502223059 | 11 | 94 | 4.8 | 8.0 | 0.00 | 0.00 | 0.00 | 65 | 1018.4 |
| 20260502223003 | 11 | 91 | 4.8 | 8.0 | 0.00 | 0.00 | 0.00 | 65 | 1018.7 |
| 20260502222846 | 11 | 93 | 6.4 | 8.0 | 0.00 | 0.00 | 0.00 | 65 | 1018.7 |
| 20260502222749 | 11 | 89 | 6.4 | 8.0 | 0.00 | 0.00 | 0.00 | 65 | 1018.7 |
| 20260502222643 | 11 | 94 | 6.4 | 9.7 | 0.00 | 0.00 | 0.00 | 65 | 1018.7 |
| 20260502222545 | 11 | 85 | 6.4 | 9.7 | 0.00 | 0.00 | 0.00 | 66 | 1018.7 |
| 20260502222451 | 11 | 97 | 6.4 | 9.7 | 0.00 | 0.00 | 0.00 | 66 | 1018.7 |
| 20260502222210 | 11 | 94 | 6.4 | 9.7 | 0.00 | 0.00 | 0.00 | 67 | 1018.7 |
| 20260502222114 | 11 | 91 | 4.8 | 9.7 | 0.00 | 0.00 | 0.00 | 67 | 1018.7 |
| 20260502222016 | 11 | 82 | 6.4 | 9.7 | 0.00 | 0.00 | 0.00 | 67 | 1018.8 |
| 20260502221910 | 11 | 94 | 6.4 | 9.7 | 0.00 | 0.00 | 0.00 | 67 | 1018.8 |
| 20260502221813 | 11 | 93 | 6.4 | 9.7 | 0.00 | 0.00 | 0.00 | 67 | 1018.7 |
| 20260502221721 | 11 | 92 | 6.4 | 9.7 | 0.00 | 0.00 | 0.00 | 67 | 1018.7 |
| 20260502221647 | 11 | 95 | 6.4 | 9.7 | 0.00 | 0.00 | 0.00 | 67 | 1018.4 |
| 20260502221616 | 11 | 94 | 8.0 | 9.7 | 0.00 | 0.00 | 0.00 | 67 | 1018.7 |
| 20260502221517 | 11 | 91 | 8.0 | 9.7 | 0.00 | 0.00 | 0.00 | 67 | 1018.8 |
| 20260502221420 | 11 | 93 | 8.0 | 11.3 | 0.00 | 0.00 | 0.00 | 67 | 1018.8 |
| 20260502221324 | 11 | 96 | 8.0 | 11.3 | 0.00 | 0.00 | 0.00 | 67 | 1018.8 |
| 20260502221156 | 11 | 97 | 8.0 | 11.3 | 0.00 | 0.00 | 0.00 | 67 | 1018.8 |
| 20260502221055 | 11 | 93 | 6.4 | 9.7 | 0.00 | 0.00 | 0.00 | 67 | 1018.8 |
| 20260502221003 | 11 | 94 | 6.4 | 11.3 | 0.00 | 0.00 | 0.00 | 67 | 1018.8 |
| 20260502220857 | 11 | 91 | 6.4 | 9.7 | 0.00 | 0.00 | 0.00 | 68 | 1018.8 |
| 20260502220800 | 11 | 94 | 6.4 | 9.7 | 0.00 | 0.00 | 0.00 | 68 | 1018.8 |
| 20260502220702 | 11 | 107 | 6.4 | 9.7 | 0.00 | 0.00 | 0.00 | 68 | 1018.8 |
| 20260502220624 | 10 | 95 | 4.8 | 9.7 | 0.00 | 0.00 | 0.00 | 68 | 1018.5 |
| 20260502220550 | 11 | 95 | 6.4 | 9.7 | 0.00 | 0.00 | 0.00 | 68 | 1018.8 |
| 20260502220453 | 11 | 104 | 8.0 | 9.7 | 0.00 | 0.00 | 0.00 | 68 | 1018.9 |
| 20260502220340 | 11 | 95 | 8.0 | 11.3 | 0.00 | 0.00 | 0.00 | 68 | 1018.9 |
| 20260502220240 | 11 | 94 | 8.0 | 11.3 | 0.00 | 0.00 | 0.00 | 68 | 1018.8 |
| 20260502220134 | 11 | 86 | 6.4 | 11.3 | 0.00 | 0.00 | 0.00 | 68 | 1018.8 |
| 20260502220035 | 11 | 81 | 6.4 | 11.3 | 0.00 | 0.00 | 0.00 | 68 | 1018.9 |
| 20260502215937 | 11 | 87 | 6.4 | 11.3 | 0.00 | 0.00 | 0.00 | 68 | 1018.9 |
| 20260502215809 | 11 | 105 | 6.4 | 11.3 | 0.00 | 0.00 | 0.00 | 68 | 1018.9 |
| 20260502215713 | 11 | 95 | 6.4 | 11.3 | 0.00 | 0.00 | 0.00 | 68 | 1018.9 |
| 20260502215618 | 11 | 97 | 6.4 | 9.7 | 0.00 | 0.00 | 0.00 | 68 | 1018.9 |
| 20260502215518 | 11 | 89 | 6.4 | 11.3 | 0.00 | 0.00 | 0.00 | 68 | 1018.9 |
| 20260502215413 | 11 | 93 | 6.4 | 11.3 | 0.00 | 0.00 | 0.00 | 69 | 1018.9 |
| 20260502215315 | 11 | 85 | 4.8 | 11.3 | 0.00 | 0.00 | 0.00 | 68 | 1018.9 |
| 20260502215155 | 11 | 93 | 4.8 | 11.3 | 0.00 | 0.00 | 0.00 | 68 | 1018.9 |
| 20260502215119 | 10 | 89 | 4.8 | 11.3 | 0.00 | 0.00 | 0.00 | 68 | 1018.5 |
| 20260502215046 | 11 | 89 | 6.4 | 11.3 | 0.00 | 0.00 | 0.00 | 68 | 1018.9 |
| 20260502214953 | 11 | 95 | 6.4 | 11.3 | 0.00 | 0.00 | 0.00 | 68 | 1018.9 |
| 20260502214855 | 11 | 89 | 6.4 | 11.3 | 0.00 | 0.00 | 0.00 | 68 | 1018.9 |
| 20260502214758 | 11 | 95 | 6.4 | 11.3 | 0.00 | 0.00 | 0.00 | 68 | 1018.9 |
| 20260502214652 | 11 | 98 | 6.4 | 9.7 | 0.00 | 0.00 | 0.00 | 68 | 1018.8 |
| 20260502214530 | 11 | 95 | 6.4 | 9.7 | 0.00 | 0.00 | 0.00 | 68 | 1018.9 |
| 20260502214432 | 11 | 78 | 6.4 | 9.7 | 0.00 | 0.00 | 0.00 | 68 | 1018.8 |
| 20260502214304 | 11 | 90 | 6.4 | 9.7 | 0.00 | 0.00 | 0.00 | 68 | 1018.8 |
| 20260502214210 | 11 | 89 | 6.4 | 9.7 | 0.00 | 0.00 | 0.00 | 68 | 1018.9 |
| 20260502214050 | 11 | 99 | 6.4 | 9.7 | 0.00 | 0.00 | 0.00 | 68 | 1018.9 |
| 20260502214015 | 10 | 82 | 6.4 | 9.7 | 0.00 | 0.00 | 0.00 | 68 | 1018.6 |
| 20260502213945 | 11 | 82 | 6.4 | 9.7 | 0.00 | 0.00 | 0.00 | 68 | 1018.9 |
| 20260502213848 | 11 | 89 | 6.4 | 9.7 | 0.00 | 0.00 | 0.00 | 67 | 1018.9 |
| 20260502213751 | 11 | 101 | 6.4 | 9.7 | 0.00 | 0.00 | 0.00 | 67 | 1018.9 |
| 20260502213653 | 11 | 99 | 6.4 | 9.7 | 0.00 | 0.00 | 0.00 | 67 | 1018.9 |
| 20260502213609 | 10 | 82 | 6.4 | 9.7 | 0.00 | 0.00 | 0.00 | 67 | 1018.6 |
| 20260502213505 | 11 | 89 | 6.4 | 9.7 | 0.00 | 0.00 | 0.00 | 67 | 1018.9 |
| 20260502213408 | 11 | 97 | 6.4 | 9.7 | 0.00 | 0.00 | 0.00 | 66 | 1019.0 |
| 20260502213248 | 11 | 88 | 6.4 | 9.7 | 0.00 | 0.00 | 0.00 | 65 | 1018.9 |
| 20260502213142 | 11 | 80 | 6.4 | 9.7 | 0.00 | 0.00 | 0.00 | 65 | 1018.9 |
| 20260502213044 | 11 | 97 | 8.0 | 11.3 | 0.00 | 0.00 | 0.00 | 65 | 1018.9 |
| 20260502212947 | 11 | 85 | 6.4 | 9.7 | 0.00 | 0.00 | 0.00 | 64 | 1019.0 |
| 20260502212842 | 11 | 99 | 6.4 | 9.7 | 0.00 | 0.00 | 0.00 | 64 | 1019.0 |
| 20260502212749 | 11 | 86 | 6.4 | 9.7 | 0.00 | 0.00 | 0.00 | 64 | 1019.0 |
| 20260502212631 | 11 | 95 | 6.4 | 9.7 | 0.00 | 0.00 | 0.00 | 64 | 1019.0 |
| 20260502212510 | 11 | 82 | 6.4 | 9.7 | 0.00 | 0.00 | 0.00 | 64 | 1019.0 |
| 20260502212342 | 11 | 88 | 4.8 | 9.7 | 0.00 | 0.00 | 0.00 | 64 | 1019.0 |
| 20260502212245 | 11 | 79 | 4.8 | 9.7 | 0.00 | 0.00 | 0.00 | 64 | 1019.1 |
| 20260502212148 | 11 | 92 | 6.4 | 9.7 | 0.00 | 0.00 | 0.00 | 64 | 1019.0 |
| 20260502212052 | 11 | 99 | 6.4 | 9.7 | 0.00 | 0.00 | 0.00 | 64 | 1019.1 |
| 20260502212030 | 11 | 97 | 4.8 | 9.7 | 0.00 | 0.00 | 0.00 | 64 | 1018.8 |
| 20260502211945 | 11 | 99 | 4.8 | 8.0 | 0.00 | 0.00 | 0.00 | 64 | 1019.0 |
| 20260502211849 | 11 | 100 | 4.8 | 11.3 | 0.00 | 0.00 | 0.00 | 64 | 1019.1 |
| 20260502211752 | 11 | 100 | 4.8 | 11.3 | 0.00 | 0.00 | 0.00 | 64 | 1019.1 |
| 20260502211455 | 11 | 95 | 6.4 | 11.3 | 0.00 | 0.00 | 0.00 | 63 | 1019.1 |
| 20260502211359 | 11 | 93 | 6.4 | 11.3 | 0.00 | 0.00 | 0.00 | 63 | 1019.1 |
| 20260502211257 | 12 | 92 | 6.4 | 11.3 | 0.00 | 0.00 | 0.00 | 63 | 1019.1 |
| 20260502211136 | 12 | 103 | 8.0 | 11.3 | 0.00 | 0.00 | 0.00 | 63 | 1019.1 |
| 20260502211037 | 12 | 89 | 8.0 | 11.3 | 0.00 | 0.00 | 0.00 | 62 | 1019.1 |
| 20260502210940 | 12 | 99 | 6.4 | 9.7 | 0.00 | 0.00 | 0.00 | 61 | 1019.1 |
| 20260502210833 | 12 | 97 | 4.8 | 9.7 | 0.00 | 0.00 | 0.00 | 60 | 1019.1 |
| 20260502210736 | 12 | 92 | 4.8 | 9.7 | 0.00 | 0.00 | 0.00 | 60 | 1019.1 |
| 20260502210639 | 12 | 96 | 4.8 | 9.7 | 0.00 | 0.00 | 0.00 | 60 | 1019.1 |
| 20260502210607 | 12 | 95 | 4.8 | 9.7 | 0.00 | 0.00 | 0.00 | 60 | 1018.8 |
| 20260502210535 | 12 | 98 | 4.8 | 9.7 | 0.00 | 0.00 | 0.00 | 60 | 1019.1 |
| 20260502210438 | 12 | 95 | 4.8 | 9.7 | 0.00 | 0.00 | 0.00 | 59 | 1019.1 |
| 20260502210342 | 12 | 97 | 6.4 | 9.7 | 0.00 | 0.00 | 0.00 | 59 | 1019.1 |
| 20260502210211 | 13 | 97 | 4.8 | 6.4 | 0.00 | 0.00 | 0.00 | 59 | 1019.2 |
| 20260502210112 | 13 | 97 | 4.8 | 6.4 | 0.00 | 0.00 | 0.00 | 59 | 1019.1 |
| 20260502205825 | 13 | 80 | 4.8 | 6.4 | 0.00 | 0.00 | 0.00 | 59 | 1019.2 |
| 20260502205702 | 13 | 93 | 4.8 | 6.4 | 0.00 | 0.00 | 0.00 | 59 | 1019.2 |
| 20260502205602 | 13 | 101 | 3.2 | 6.4 | 0.00 | 0.00 | 0.00 | 59 | 1019.2 |
| 20260502205504 | 13 | 95 | 3.2 | 6.4 | 0.00 | 0.00 | 0.00 | 59 | 1019.2 |
| 20260502205334 | 13 | 97 | 3.2 | 6.4 | 0.00 | 0.00 | 0.00 | 59 | 1019.2 |
| 20260502205215 | 13 | 97 | 3.2 | 9.7 | 0.00 | 0.00 | 0.00 | 59 | 1019.2 |
| 20260502205055 | 13 | 87 | 4.8 | 9.7 | 0.00 | 0.00 | 0.00 | 59 | 1019.2 |
| 20260502205003 | 13 | 104 | 4.8 | 9.7 | 0.00 | 0.00 | 0.00 | 59 | 1019.3 |
| 20260502204857 | 13 | 99 | 4.8 | 9.7 | 0.00 | 0.00 | 0.00 | 59 | 1019.3 |
| 20260502204759 | 13 | 90 | 4.8 | 9.7 | 0.00 | 0.00 | 0.00 | 59 | 1019.2 |
| 20260502204701 | 13 | 103 | 4.8 | 9.7 | 0.00 | 0.00 | 0.00 | 59 | 1019.3 |
| 20260502204620 | 12 | 104 | 3.2 | 9.7 | 0.00 | 0.00 | 0.00 | 59 | 1019.0 |
| 20260502204550 | 13 | 87 | 4.8 | 9.7 | 0.00 | 0.00 | 0.00 | 59 | 1019.3 |
| 20260502204433 | 13 | 97 | 4.8 | 9.7 | 0.00 | 0.00 | 0.00 | 59 | 1019.3 |
| 20260502204334 | 13 | 99 | 6.4 | 9.7 | 0.00 | 0.00 | 0.00 | 59 | 1019.3 |
| 20260502204240 | 13 | 95 | 4.8 | 6.4 | 0.00 | 0.00 | 0.00 | 59 | 1019.3 |
| 20260502204152 | 12 | 95 | 3.2 | 6.4 | 0.00 | 0.00 | 0.00 | 59 | 1019.0 |
| 20260502204113 | 13 | 95 | 4.8 | 6.4 | 0.00 | 0.00 | 0.00 | 59 | 1019.3 |
| 20260502204013 | 13 | 95 | 4.8 | 6.4 | 0.00 | 0.00 | 0.00 | 59 | 1019.3 |
| 20260502203917 | 13 | 95 | 3.2 | 6.4 | 0.00 | 0.00 | 0.00 | 59 | 1019.3 |
| 20260502203751 | 13 | 95 | 4.8 | 6.4 | 0.00 | 0.00 | 0.00 | 59 | 1019.3 |
| 20260502203634 | 13 | 95 | 4.8 | 6.4 | 0.00 | 0.00 | 0.00 | 58 | 1019.4 |
| 20260502203518 | 13 | 93 | 4.8 | 9.7 | 0.00 | 0.00 | 0.00 | 58 | 1019.3 |
| 20260502203420 | 13 | 93 | 4.8 | 9.7 | 0.00 | 0.00 | 0.00 | 59 | 1019.3 |
| 20260502203254 | 13 | 93 | 4.8 | 9.7 | 0.00 | 0.00 | 0.00 | 59 | 1019.3 |
| 20260502203152 | 13 | 90 | 4.8 | 9.7 | 0.00 | 0.00 | 0.00 | 58 | 1019.3 |
| 20260502203049 | 13 | 90 | 4.8 | 9.7 | 0.00 | 0.00 | 0.00 | 58 | 1019.4 |
| 20260502202901 | 13 | 94 | 4.8 | 9.7 | 0.00 | 0.00 | 0.00 | 58 | 1019.4 |
| 20260502202805 | 13 | 85 | 4.8 | 9.7 | 0.00 | 0.00 | 0.00 | 58 | 1019.4 |
| 20260502202637 | 13 | 95 | 4.8 | 9.7 | 0.00 | 0.00 | 0.00 | 57 | 1019.3 |
| 20260502202537 | 13 | 91 | 4.8 | 9.7 | 0.00 | 0.00 | 0.00 | 57 | 1019.4 |
| 20260502202439 | 13 | 91 | 4.8 | 9.7 | 0.00 | 0.00 | 0.00 | 57 | 1019.4 |
| 20260502202312 | 13 | 94 | 4.8 | 9.7 | 0.00 | 0.00 | 0.00 | 57 | 1019.4 |
| 20260502202215 | 13 | 94 | 4.8 | 9.7 | 0.00 | 0.00 | 0.00 | 57 | 1019.4 |
| 20260502202118 | 13 | 80 | 4.8 | 9.7 | 0.00 | 0.00 | 0.00 | 57 | 1019.4 |
| 20260502202023 | 13 | 95 | 4.8 | 9.7 | 0.00 | 0.00 | 0.00 | 57 | 1019.4 |
| 20260502201916 | 13 | 98 | 4.8 | 6.4 | 0.00 | 0.00 | 0.00 | 57 | 1019.5 |
| 20260502201818 | 13 | 108 | 4.8 | 6.4 | 0.00 | 0.00 | 0.00 | 57 | 1019.5 |
| 20260502201721 | 13 | 100 | 4.8 | 6.4 | 0.00 | 0.00 | 0.00 | 57 | 1019.5 |
| 20260502201655 | 13 | 91 | 3.2 | 6.4 | 0.00 | 0.00 | 0.00 | 57 | 1019.2 |
| 20260502201614 | 13 | 89 | 4.8 | 6.4 | 0.00 | 0.00 | 0.00 | 57 | 1019.5 |
| 20260502201512 | 13 | 101 | 4.8 | 6.4 | 0.00 | 0.00 | 0.00 | 57 | 1019.5 |
| 20260502201420 | 13 | 95 | 4.8 | 6.4 | 0.00 | 0.00 | 0.00 | 57 | 1019.5 |
| 20260502201314 | 13 | 89 | 4.8 | 6.4 | 0.00 | 0.00 | 0.00 | 57 | 1019.4 |
| 20260502201154 | 13 | 93 | 4.8 | 6.4 | 0.00 | 0.00 | 0.00 | 57 | 1019.6 |
| 20260502201055 | 13 | 93 | 4.8 | 6.4 | 0.00 | 0.00 | 0.00 | 56 | 1019.5 |
| 20260502201026 | 13 | 91 | 4.8 | 6.4 | 0.00 | 0.00 | 0.00 | 56 | 1019.2 |
| 20260502200949 | 13 | 93 | 4.8 | 6.4 | 0.00 | 0.00 | 0.00 | 56 | 1019.5 |
| 20260502200830 | 14 | 95 | 4.8 | 6.4 | 0.00 | 0.00 | 0.00 | 56 | 1019.5 |
| 20260502200732 | 14 | 96 | 4.8 | 6.4 | 0.00 | 0.00 | 0.00 | 56 | 1019.5 |
| 20260502200638 | 14 | 92 | 3.2 | 6.4 | 0.00 | 0.00 | 0.00 | 56 | 1019.5 |
| 20260502200613 | 13 | 79 | 3.2 | 6.4 | 0.00 | 0.00 | 0.00 | 56 | 1019.2 |
| 20260502200531 | 14 | 94 | 3.2 | 6.4 | 0.00 | 0.00 | 0.00 | 56 | 1019.5 |
| 20260502200433 | 14 | 94 | 3.2 | 6.4 | 0.00 | 0.00 | 0.00 | 56 | 1019.5 |
| 20260502200337 | 14 | 95 | 3.2 | 6.4 | 0.00 | 0.00 | 0.00 | 56 | 1019.5 |
| 20260502200229 | 14 | 97 | 4.8 | 6.4 | 0.00 | 0.00 | 0.00 | 56 | 1019.5 |
| 20260502200111 | 14 | 93 | 4.8 | 6.4 | 0.00 | 0.00 | 0.00 | 55 | 1019.5 |
| 20260502200016 | 14 | 93 | 4.8 | 6.4 | 0.00 | 0.00 | 0.00 | 55 | 1019.4 |
| 20260502195918 | 14 | 96 | 4.8 | 6.4 | 0.00 | 0.00 | 0.00 | 55 | 1019.5 |
| 20260502195810 | 14 | 91 | 4.8 | 6.4 | 0.00 | 0.00 | 0.00 | 55 | 1019.5 |
| 20260502195713 | 14 | 97 | 4.8 | 6.4 | 0.00 | 0.00 | 0.00 | 55 | 1019.5 |
| 20260502195552 | 14 | 94 | 3.2 | 6.4 | 0.00 | 0.00 | 0.00 | 55 | 1019.5 |
| 20260502195525 | 14 | 94 | 3.2 | 6.4 | 0.00 | 0.00 | 0.00 | 55 | 1019.2 |
| 20260502195446 | 14 | 89 | 3.2 | 6.4 | 0.00 | 0.00 | 0.00 | 55 | 1019.5 |
| 20260502195333 | 14 | 89 | 3.2 | 6.4 | 0.00 | 0.00 | 0.00 | 55 | 1019.5 |
| 20260502195054 | 14 | 89 | 3.2 | 6.4 | 0.00 | 0.00 | 0.00 | 54 | 1019.6 |
| 20260502194935 | 14 | 89 | 3.2 | 6.4 | 0.00 | 0.00 | 0.00 | 54 | 1019.5 |
| 20260502194828 | 14 | 89 | 4.8 | 6.4 | 0.00 | 0.00 | 0.00 | 54 | 1019.5 |
| 20260502194732 | 14 | 88 | 4.8 | 6.4 | 0.00 | 0.00 | 0.00 | 54 | 1019.5 |
| 20260502194611 | 14 | 90 | 4.8 | 8.0 | 0.00 | 0.00 | 0.00 | 54 | 1019.6 |
| 20260502194457 | 15 | 95 | 4.8 | 8.0 | 0.00 | 0.00 | 0.00 | 53 | 1019.5 |
| 20260502194350 | 15 | 93 | 4.8 | 8.0 | 0.00 | 0.00 | 0.00 | 53 | 1019.6 |
| 20260502194253 | 15 | 93 | 4.8 | 8.0 | 0.00 | 0.00 | 0.00 | 53 | 1019.5 |
| 20260502194154 | 15 | 95 | 4.8 | 8.0 | 0.00 | 0.00 | 0.00 | 52 | 1019.5 |
| 20260502194054 | 15 | 82 | 4.8 | 8.0 | 0.00 | 0.00 | 0.00 | 52 | 1019.5 |
| 20260502194033 | 14 | 89 | 4.8 | 8.0 | 0.00 | 0.00 | 0.00 | 52 | 1019.2 |
| 20260502193946 | 15 | 85 | 4.8 | 8.0 | 0.00 | 0.00 | 0.00 | 52 | 1019.5 |
| 20260502193833 | 15 | 93 | 6.4 | 8.0 | 0.00 | 0.00 | 0.00 | 53 | 1019.5 |
| 20260502193727 | 15 | 84 | 6.4 | 8.0 | 0.00 | 0.00 | 0.00 | 53 | 1019.5 |
| 20260502193630 | 15 | 91 | 4.8 | 8.0 | 0.00 | 0.00 | 0.00 | 53 | 1019.5 |
| 20260502193509 | 15 | 103 | 4.8 | 8.0 | 0.00 | 0.00 | 0.00 | 53 | 1019.6 |
| 20260502193231 | 15 | 95 | 4.8 | 8.0 | 0.00 | 0.00 | 0.00 | 52 | 1019.5 |
| 20260502193134 | 15 | 105 | 4.8 | 8.0 | 0.00 | 0.00 | 0.00 | 52 | 1019.6 |
| 20260502193119 | 15 | 91 | 4.8 | 8.0 | 0.00 | 0.00 | 0.00 | 52 | 1019.3 |
| 20260502193029 | 15 | 91 | 4.8 | 8.0 | 0.00 | 0.00 | 0.00 | 52 | 1019.6 |
| 20260502192932 | 15 | 96 | 4.8 | 8.0 | 0.00 | 0.00 | 0.00 | 52 | 1019.6 |
| 20260502192813 | 15 | 95 | 4.8 | 8.0 | 0.00 | 0.00 | 0.00 | 52 | 1019.6 |
| 20260502192657 | 15 | 98 | 4.8 | 8.0 | 0.00 | 0.00 | 0.00 | 52 | 1019.6 |
| 20260502192633 | 15 | 101 | 4.8 | 8.0 | 0.00 | 0.00 | 0.00 | 52 | 1019.2 |
| 20260502192529 | 15 | 95 | 4.8 | 8.0 | 0.00 | 0.00 | 0.00 | 52 | 1019.5 |
| 20260502192432 | 15 | 93 | 4.8 | 8.0 | 0.00 | 0.00 | 0.00 | 51 | 1019.6 |
| 20260502192330 | 15 | 97 | 3.2 | 6.4 | 0.00 | 0.00 | 0.00 | 51 | 1019.6 |
| 20260502192230 | 15 | 105 | 3.2 | 6.4 | 0.00 | 0.00 | 0.00 | 51 | 1019.6 |
| 20260502192110 | 15 | 89 | 3.2 | 4.8 | 0.00 | 0.00 | 0.00 | 51 | 1019.6 |
| 20260502191952 | 15 | 89 | 3.2 | 4.8 | 0.00 | 0.00 | 0.00 | 51 | 1019.6 |
| 20260502191846 | 15 | 89 | 3.2 | 6.4 | 0.00 | 0.00 | 0.00 | 51 | 1019.6 |
| 20260502191749 | 15 | 95 | 3.2 | 6.4 | 0.00 | 0.00 | 0.00 | 51 | 1019.5 |
| 20260502191552 | 15 | 94 | 1.6 | 8.0 | 0.00 | 0.00 | 0.00 | 51 | 1019.2 |
| 20260502191518 | 15 | 94 | 3.2 | 8.0 | 0.00 | 0.00 | 0.00 | 50 | 1019.5 |
| 20260502191421 | 15 | 94 | 1.6 | 8.0 | 0.00 | 0.00 | 0.00 | 50 | 1019.5 |
| 20260502191324 | 15 | 94 | 3.2 | 8.0 | 0.00 | 0.00 | 0.00 | 50 | 1019.5 |
| 20260502191144 | 15 | 94 | 4.8 | 8.0 | 0.00 | 0.00 | 0.00 | 50 | 1019.4 |
| 20260502191120 | 15 | 94 | 4.8 | 8.0 | 0.00 | 0.00 | 0.00 | 50 | 1019.1 |
| 20260502191034 | 16 | 94 | 6.4 | 8.0 | 0.00 | 0.00 | 0.00 | 50 | 1019.5 |
| 20260502190917 | 16 | 89 | 6.4 | 8.0 | 0.00 | 0.00 | 0.00 | 50 | 1019.4 |
| 20260502190759 | 16 | 100 | 4.8 | 8.0 | 0.00 | 0.00 | 0.00 | 49 | 1019.5 |
| 20260502190657 | 16 | 92 | 4.8 | 8.0 | 0.00 | 0.00 | 0.00 | 49 | 1019.4 |
| 20260502190537 | 16 | 86 | 3.2 | 8.0 | 0.00 | 0.00 | 0.00 | 49 | 1019.4 |
| 20260502190441 | 16 | 99 | 4.8 | 8.0 | 0.00 | 0.00 | 0.00 | 49 | 1019.4 |
| 20260502190334 | 16 | 90 | 4.8 | 8.0 | 0.00 | 0.00 | 0.00 | 49 | 1019.5 |
| 20260502190235 | 16 | 90 | 4.8 | 9.7 | 0.00 | 0.00 | 0.00 | 49 | 1019.4 |
| 20260502190138 | 16 | 84 | 4.8 | 9.7 | 0.00 | 0.00 | 0.00 | 49 | 1019.5 |
| 20260502190057 | 16 | 92 | 4.8 | 9.7 | 0.00 | 0.00 | 0.00 | 49 | 1019.1 |
| 20260502185904 | 16 | 103 | 4.8 | 9.7 | 0.00 | 0.00 | 0.00 | 48 | 1019.4 |
| 20260502185807 | 16 | 95 | 4.8 | 9.7 | 0.00 | 0.00 | 0.00 | 48 | 1019.4 |
| 20260502185648 | 16 | 97 | 4.8 | 9.7 | 0.00 | 0.00 | 0.00 | 48 | 1019.4 |
| 20260502185619 | 16 | 87 | 4.8 | 9.7 | 0.00 | 0.00 | 0.00 | 48 | 1019.1 |
| 20260502185540 | 16 | 96 | 6.4 | 9.7 | 0.00 | 0.00 | 0.00 | 48 | 1019.4 |
| 20260502185442 | 16 | 97 | 6.4 | 9.7 | 0.00 | 0.00 | 0.00 | 47 | 1019.4 |
| 20260502185343 | 16 | 99 | 6.4 | 8.0 | 0.00 | 0.00 | 0.00 | 47 | 1019.4 |
| 20260502185251 | 16 | 90 | 4.8 | 8.0 | 0.00 | 0.00 | 0.00 | 47 | 1019.4 |
| 20260502185145 | 16 | 89 | 4.8 | 9.7 | 0.00 | 0.00 | 0.00 | 46 | 1019.4 |
| 20260502185047 | 16 | 91 | 4.8 | 9.7 | 0.00 | 0.00 | 0.00 | 46 | 1019.4 |
| 20260502184950 | 16 | 87 | 4.8 | 9.7 | 0.00 | 0.00 | 0.00 | 46 | 1019.4 |
| 20260502184843 | 16 | 83 | 4.8 | 9.7 | 0.00 | 0.00 | 0.00 | 46 | 1019.4 |
| 20260502184746 | 16 | 85 | 4.8 | 9.7 | 0.00 | 0.00 | 0.00 | 46 | 1019.4 |
| 20260502184648 | 16 | 102 | 4.8 | 9.7 | 0.00 | 0.00 | 0.00 | 46 | 1019.4 |
| 20260502184602 | 16 | 93 | 4.8 | 9.7 | 0.00 | 0.00 | 0.00 | 46 | 1019.0 |
| 20260502184522 | 17 | 99 | 6.4 | 9.7 | 0.00 | 0.00 | 0.00 | 46 | 1019.4 |
| 20260502184401 | 17 | 94 | 4.8 | 9.7 | 0.00 | 0.00 | 0.00 | 46 | 1019.4 |
| 20260502184305 | 17 | 92 | 6.4 | 9.7 | 0.00 | 0.00 | 0.00 | 46 | 1019.3 |
| 20260502184144 | 17 | 97 | 6.4 | 8.0 | 0.00 | 0.00 | 0.00 | 45 | 1019.3 |
| 20260502184119 | 17 | 79 | 4.8 | 8.0 | 0.00 | 0.00 | 0.00 | 45 | 1019.0 |
| 20260502184035 | 17 | 85 | 6.4 | 8.0 | 0.00 | 0.00 | 0.00 | 45 | 1019.3 |
| 20260502183917 | 17 | 88 | 6.4 | 9.7 | 0.00 | 0.00 | 0.00 | 45 | 1019.3 |
| 20260502183803 | 17 | 91 | 6.4 | 8.0 | 0.00 | 0.00 | 0.00 | 45 | 1019.3 |
| 20260502183659 | 17 | 112 | 6.4 | 9.7 | 0.00 | 0.00 | 0.00 | 44 | 1019.3 |
| 20260502183558 | 17 | 97 | 6.4 | 8.0 | 0.00 | 0.00 | 0.00 | 44 | 1019.2 |
| 20260502183501 | 17 | 101 | 6.4 | 9.7 | 0.00 | 0.00 | 0.00 | 44 | 1019.2 |
| 20260502183404 | 17 | 98 | 6.4 | 9.7 | 0.00 | 0.00 | 0.00 | 44 | 1019.2 |
| 20260502183257 | 17 | 105 | 6.4 | 9.7 | 0.00 | 0.00 | 0.00 | 44 | 1019.3 |
| 20260502183157 | 17 | 85 | 6.4 | 8.0 | 0.00 | 0.00 | 0.00 | 44 | 1019.3 |
| 20260502183102 | 17 | 82 | 6.4 | 9.7 | 0.00 | 0.00 | 0.00 | 44 | 1019.2 |
| 20260502183030 | 17 | 107 | 4.8 | 9.7 | 0.00 | 0.00 | 0.00 | 44 | 1018.9 |
| 20260502182957 | 17 | 96 | 6.4 | 9.7 | 0.00 | 0.00 | 0.00 | 44 | 1019.3 |
| 20260502182859 | 17 | 91 | 6.4 | 9.7 | 0.00 | 0.00 | 0.00 | 43 | 1019.3 |
| 20260502182623 | 17 | 91 | 6.4 | 9.7 | 0.00 | 0.00 | 0.00 | 43 | 1019.2 |
| 20260502182557 | 17 | 93 | 6.4 | 9.7 | 0.00 | 0.00 | 0.00 | 43 | 1018.9 |
| 20260502182513 | 18 | 101 | 8.0 | 9.7 | 0.00 | 0.00 | 0.00 | 43 | 1019.2 |
| 20260502182421 | 18 | 90 | 8.0 | 9.7 | 0.00 | 0.00 | 0.00 | 43 | 1019.2 |
| 20260502182324 | 18 | 97 | 8.0 | 11.3 | 0.00 | 0.00 | 0.00 | 43 | 1019.2 |
| 20260502182152 | 18 | 97 | 8.0 | 9.7 | 0.00 | 0.00 | 0.00 | 42 | 1019.2 |
| 20260502182053 | 18 | 88 | 8.0 | 9.7 | 0.00 | 0.00 | 0.00 | 42 | 1019.2 |
| 20260502181955 | 18 | 92 | 8.0 | 9.7 | 0.00 | 0.00 | 0.00 | 42 | 1019.2 |
| 20260502181859 | 18 | 101 | 8.0 | 9.7 | 0.00 | 0.00 | 0.00 | 41 | 1019.2 |
| 20260502181753 | 18 | 95 | 6.4 | 9.7 | 0.00 | 0.00 | 0.00 | 41 | 1019.1 |
| 20260502181701 | 18 | 94 | 6.4 | 8.0 | 0.00 | 0.00 | 0.00 | 41 | 1019.1 |
| 20260502181602 | 18 | 93 | 6.4 | 9.7 | 0.00 | 0.00 | 0.00 | 41 | 1019.1 |
| 20260502181443 | 18 | 89 | 4.8 | 9.7 | 0.00 | 0.00 | 0.00 | 40 | 1019.1 |
| 20260502181337 | 19 | 80 | 4.8 | 6.4 | 0.00 | 0.00 | 0.00 | 40 | 1019.1 |
| 20260502181237 | 19 | 87 | 4.8 | 6.4 | 0.00 | 0.00 | 0.00 | 40 | 1019.1 |
| 20260502181140 | 19 | 91 | 4.8 | 6.4 | 0.00 | 0.00 | 0.00 | 40 | 1019.1 |
| 20260502181107 | 19 | 82 | 3.2 | 6.4 | 0.00 | 0.00 | 0.00 | 40 | 1018.8 |
| 20260502181036 | 19 | 88 | 4.8 | 6.4 | 0.00 | 0.00 | 0.00 | 40 | 1019.1 |
| 20260502180938 | 19 | 89 | 4.8 | 6.4 | 0.00 | 0.00 | 0.00 | 39 | 1019.1 |
| 20260502180838 | 20 | 85 | 3.2 | 4.8 | 0.00 | 0.00 | 0.00 | 39 | 1019.1 |
| 20260502180720 | 20 | 85 | 3.2 | 4.8 | 0.00 | 0.00 | 0.00 | 39 | 1019.2 |
| 20260502180659 | 19 | 85 | 3.2 | 4.8 | 0.00 | 0.00 | 0.00 | 39 | 1018.8 |
| 20260502180614 | 20 | 85 | 3.2 | 4.8 | 0.00 | 0.00 | 0.00 | 39 | 1019.1 |
| 20260502180515 | 20 | 85 | 3.2 | 4.8 | 0.00 | 0.00 | 0.00 | 39 | 1019.1 |
| 20260502180418 | 20 | 84 | 3.2 | 6.4 | 0.00 | 0.00 | 0.00 | 39 | 1019.1 |
| 20260502180317 | 20 | 84 | 3.2 | 6.4 | 0.00 | 0.00 | 0.00 | 38 | 1019.1 |
| 20260502180155 | 20 | 84 | 3.2 | 6.4 | 0.00 | 0.00 | 0.00 | 38 | 1019.1 |
| 20260502170427 | 22 | 78 | 9.7 | 14.5 | 0.00 | 0.00 | 0.00 | 32 | 1019.2 |
| 20260502170322 | 22 | 103 | 8.0 | 16.1 | 0.00 | 0.00 | 0.00 | 32 | 1019.1 |
| 20260502170202 | 22 | 98 | 9.7 | 16.1 | 0.00 | 0.00 | 0.00 | 32 | 1019.1 |
| 20260502164332 | 23 | 114 | 8.0 | 17.7 | 0.00 | 0.00 | 0.00 | 31 | 1019.3 |
| 20260502164212 | 23 | 97 | 8.0 | 17.7 | 0.00 | 0.00 | 0.00 | 30 | 1019.4 |
| 20260502164145 | 22 | 82 | 6.4 | 17.7 | 0.00 | 0.00 | 0.00 | 30 | 1019.0 |
| 20260502164104 | 23 | 70 | 6.4 | 17.7 | 0.00 | 0.00 | 0.00 | 29 | 1019.3 |
| 20260502164006 | 23 | 85 | 8.0 | 17.7 | 0.00 | 0.00 | 0.00 | 30 | 1019.3 |
| 20260502163909 | 23 | 96 | 9.7 | 17.7 | 0.00 | 0.00 | 0.00 | 29 | 1019.3 |
| 20260502163740 | 23 | 77 | 8.0 | 14.5 | 0.00 | 0.00 | 0.00 | 30 | 1019.3 |
| 20260502163626 | 23 | 111 | 8.0 | 14.5 | 0.00 | 0.00 | 0.00 | 30 | 1019.3 |
| 20260502163526 | 23 | 89 | 9.7 | 14.5 | 0.00 | 0.00 | 0.00 | 30 | 1019.3 |
| 20260502163427 | 23 | 102 | 8.0 | 14.5 | 0.00 | 0.00 | 0.00 | 30 | 1019.3 |
| 20260502163259 | 23 | 96 | 6.4 | 14.5 | 0.00 | 0.00 | 0.00 | 30 | 1019.3 |
| 20260502163200 | 23 | 89 | 8.0 | 16.1 | 0.00 | 0.00 | 0.00 | 30 | 1019.4 |
| 20260502163100 | 23 | 103 | 8.0 | 16.1 | 0.00 | 0.00 | 0.00 | 30 | 1019.4 |
| 20260502163007 | 23 | 76 | 6.4 | 16.1 | 0.00 | 0.00 | 0.00 | 30 | 1019.4 |
| 20260502162859 | 23 | 74 | 8.0 | 16.1 | 0.00 | 0.00 | 0.00 | 29 | 1019.4 |
| 20260502162800 | 23 | 87 | 9.7 | 16.1 | 0.00 | 0.00 | 0.00 | 30 | 1019.4 |
| 20260502162701 | 23 | 95 | 9.7 | 19.3 | 0.00 | 0.00 | 0.00 | 31 | 1019.4 |
| 20260502162635 | 23 | 93 | 9.7 | 19.3 | 0.00 | 0.00 | 0.00 | 31 | 1019.1 |
| 20260502162553 | 23 | 94 | 9.7 | 19.3 | 0.00 | 0.00 | 0.00 | 30 | 1019.5 |
| 20260502162456 | 23 | 92 | 9.7 | 19.3 | 0.00 | 0.00 | 0.00 | 30 | 1019.5 |
| 20260502162357 | 23 | 105 | 11.3 | 19.3 | 0.00 | 0.00 | 0.00 | 29 | 1019.5 |
| 20260502162256 | 23 | 99 | 11.3 | 19.3 | 0.00 | 0.00 | 0.00 | 29 | 1019.5 |
| 20260502162158 | 23 | 88 | 9.7 | 19.3 | 0.00 | 0.00 | 0.00 | 30 | 1019.5 |
| 20260502162057 | 23 | 70 | 9.7 | 19.3 | 0.00 | 0.00 | 0.00 | 30 | 1019.5 |
| 20260502161939 | 23 | 84 | 9.7 | 19.3 | 0.00 | 0.00 | 0.00 | 29 | 1019.6 |
| 20260502161833 | 23 | 72 | 8.0 | 17.7 | 0.00 | 0.00 | 0.00 | 28 | 1019.5 |
| 20260502161714 | 23 | 78 | 8.0 | 17.7 | 0.00 | 0.00 | 0.00 | 29 | 1019.6 |
| 20260502161621 | 23 | 64 | 8.0 | 17.7 | 0.00 | 0.00 | 0.00 | 29 | 1019.6 |
| 20260502161551 | 23 | 102 | 8.0 | 17.7 | 0.00 | 0.00 | 0.00 | 29 | 1019.2 |
| 20260502161512 | 23 | 77 | 9.7 | 17.7 | 0.00 | 0.00 | 0.00 | 29 | 1019.6 |
| 20260502161415 | 23 | 80 | 11.3 | 17.7 | 0.00 | 0.00 | 0.00 | 28 | 1019.6 |
| 20260502161318 | 23 | 89 | 11.3 | 17.7 | 0.00 | 0.00 | 0.00 | 29 | 1019.6 |
| 20260502161208 | 23 | 112 | 11.3 | 17.7 | 0.00 | 0.00 | 0.00 | 28 | 1019.6 |
| 20260502161047 | 23 | 93 | 9.7 | 16.1 | 0.00 | 0.00 | 0.00 | 29 | 1019.6 |
| 20260502160950 | 23 | 97 | 8.0 | 16.1 | 0.00 | 0.00 | 0.00 | 29 | 1019.6 |
| 20260502160834 | 23 | 105 | 9.7 | 16.1 | 0.00 | 0.00 | 0.00 | 29 | 1019.6 |
| 20260502160707 | 23 | 82 | 9.7 | 16.1 | 0.00 | 0.00 | 0.00 | 29 | 1019.6 |
| 20260502160610 | 23 | 75 | 8.0 | 16.1 | 0.00 | 0.00 | 0.00 | 29 | 1019.7 |
| 20260502160509 | 23 | 80 | 6.4 | 16.1 | 0.00 | 0.00 | 0.00 | 29 | 1019.6 |
| 20260502160341 | 23 | 85 | 6.4 | 16.1 | 0.00 | 0.00 | 0.00 | 30 | 1019.7 |
| 20260502160220 | 23 | 99 | 8.0 | 16.1 | 0.00 | 0.00 | 0.00 | 30 | 1019.6 |
| 20260502160126 | 23 | 74 | 8.0 | 16.1 | 0.00 | 0.00 | 0.00 | 29 | 1019.6 |
| 20260502152229 | 24 | 59 | 4.8 | 16.1 | 0.00 | 0.00 | 0.00 | 28 | 1020.1 |
| 20260502152131 | 24 | 64 | 4.8 | 16.1 | 0.00 | 0.00 | 0.00 | 29 | 1020.1 |
| 20260502151853 | 24 | 118 | 9.7 | 17.7 | 0.00 | 0.00 | 0.00 | 28 | 1020.1 |
| 20260502151756 | 24 | 99 | 8.0 | 17.7 | 0.00 | 0.00 | 0.00 | 29 | 1020.2 |
| 20260502151702 | 24 | 83 | 8.0 | 17.7 | 0.00 | 0.00 | 0.00 | 30 | 1020.2 |
| 20260502151634 | 23 | 95 | 8.0 | 17.7 | 0.00 | 0.00 | 0.00 | 30 | 1019.8 |
| 20260502151554 | 24 | 83 | 9.7 | 17.7 | 0.00 | 0.00 | 0.00 | 29 | 1020.2 |
| 20260502151458 | 24 | 91 | 11.3 | 17.7 | 0.00 | 0.00 | 0.00 | 29 | 1020.2 |
| 20260502151400 | 24 | 98 | 11.3 | 17.7 | 0.00 | 0.00 | 0.00 | 30 | 1020.2 |
| 20260502151254 | 24 | 85 | 11.3 | 17.7 | 0.00 | 0.00 | 0.00 | 28 | 1020.2 |
| 20260502151155 | 24 | 73 | 9.7 | 17.7 | 0.00 | 0.00 | 0.00 | 29 | 1020.2 |
| 20260502151057 | 24 | 97 | 4.8 | 16.1 | 0.00 | 0.00 | 0.00 | 28 | 1020.2 |
| 20260502151003 | 24 | 92 | 6.4 | 16.1 | 0.00 | 0.00 | 0.00 | 28 | 1020.2 |
| 20260502150856 | 24 | 69 | 9.7 | 16.1 | 0.00 | 0.00 | 0.00 | 28 | 1020.3 |
| 20260502150800 | 24 | 97 | 9.7 | 17.7 | 0.00 | 0.00 | 0.00 | 28 | 1020.2 |
| 20260502150640 | 24 | 89 | 8.0 | 17.7 | 0.00 | 0.00 | 0.00 | 29 | 1020.3 |
| 20260502150606 | 23 | 57 | 6.4 | 17.7 | 0.00 | 0.00 | 0.00 | 29 | 1019.9 |
| 20260502150532 | 24 | 92 | 8.0 | 17.7 | 0.00 | 0.00 | 0.00 | 28 | 1020.3 |
| 20260502150436 | 24 | 74 | 8.0 | 17.7 | 0.00 | 0.00 | 0.00 | 27 | 1020.3 |
| 20260502150344 | 24 | 57 | 9.7 | 17.7 | 0.00 | 0.00 | 0.00 | 29 | 1020.3 |
| 20260502150224 | 24 | 80 | 8.0 | 17.7 | 0.00 | 0.00 | 0.00 | 28 | 1020.3 |
| 20260502150201 | 23 | 77 | 8.0 | 17.7 | 0.00 | 0.00 | 0.00 | 28 | 1019.9 |
| 20260502150116 | 24 | 54 | 11.3 | 17.7 | 0.00 | 0.00 | 0.00 | 29 | 1020.3 |
| 20260502140104 | 24 | 59 | 8.0 | 14.5 | 0.00 | 0.00 | 0.00 | 29 | 1020.9 |
| 20260502130735 | 23 | 105 | 9.7 | 16.1 | 0.00 | 0.00 | 0.00 | 30 | 1021.6 |
| 20260502130637 | 23 | 81 | 9.7 | 16.1 | 0.00 | 0.00 | 0.00 | 31 | 1021.7 |
| 20260502130537 | 23 | 36 | 9.7 | 16.1 | 0.00 | 0.00 | 0.00 | 30 | 1021.7 |
| 20260502130239 | 23 | 33 | 6.4 | 14.5 | 0.00 | 0.00 | 0.00 | 31 | 1021.7 |
| 20260502130120 | 23 | 104 | 9.7 | 14.5 | 0.00 | 0.00 | 0.00 | 30 | 1021.7 |
| 20260502123753 | 23 | 51 | 8.0 | 17.7 | 0.00 | 0.00 | 0.00 | 33 | 1021.9 |
| 20260502123652 | 23 | 32 | 8.0 | 17.7 | 0.00 | 0.00 | 0.00 | 33 | 1021.9 |
| 20260502123618 | 23 | 61 | 6.4 | 17.7 | 0.00 | 0.00 | 0.00 | 32 | 1021.7 |
| 20260502123543 | 23 | 55 | 9.7 | 17.7 | 0.00 | 0.00 | 0.00 | 33 | 1021.9 |
| 20260502123404 | 23 | 103 | 11.3 | 17.7 | 0.00 | 0.00 | 0.00 | 32 | 1021.9 |
| 20260502123311 | 23 | 97 | 11.3 | 19.3 | 0.00 | 0.00 | 0.00 | 33 | 1021.9 |
| 20260502123212 | 23 | 31 | 11.3 | 20.9 | 0.00 | 0.00 | 0.00 | 32 | 1022.0 |
| 20260502123147 | 23 | 80 | 9.7 | 20.9 | 0.00 | 0.00 | 0.00 | 32 | 1021.8 |
| 20260502123103 | 23 | 82 | 9.7 | 20.9 | 0.00 | 0.00 | 0.00 | 32 | 1022.0 |
| 20260502123004 | 23 | 64 | 8.0 | 20.9 | 0.00 | 0.00 | 0.00 | 33 | 1022.0 |
| 20260502122907 | 23 | 106 | 9.7 | 20.9 | 0.00 | 0.00 | 0.00 | 32 | 1022.0 |
| 20260502122800 | 23 | 94 | 11.3 | 20.9 | 0.00 | 0.00 | 0.00 | 32 | 1022.0 |
| 20260502122702 | 23 | 97 | 8.0 | 20.9 | 0.00 | 0.00 | 0.00 | 31 | 1022.1 |
| 20260502122609 | 23 | 68 | 11.3 | 20.9 | 0.00 | 0.00 | 0.00 | 31 | 1022.1 |
| 20260502122510 | 23 | 45 | 14.5 | 20.9 | 0.00 | 0.00 | 0.00 | 32 | 1022.1 |
| 20260502122403 | 23 | 75 | 9.7 | 19.3 | 0.00 | 0.00 | 0.00 | 33 | 1022.2 |
| 20260502122306 | 23 | 52 | 6.4 | 19.3 | 0.00 | 0.00 | 0.00 | 32 | 1022.2 |
| 20260502122207 | 23 | 107 | 11.3 | 19.3 | 0.00 | 0.00 | 0.00 | 31 | 1022.2 |
| 20260502122115 | 23 | 93 | 9.7 | 19.3 | 0.00 | 0.00 | 0.00 | 31 | 1021.9 |
| 20260502122038 | 23 | 85 | 9.7 | 19.3 | 0.00 | 0.00 | 0.00 | 31 | 1022.2 |
| 20260502121945 | 23 | 78 | 8.0 | 17.7 | 0.00 | 0.00 | 0.00 | 31 | 1022.3 |
| 20260502121848 | 23 | 38 | 9.7 | 19.3 | 0.00 | 0.00 | 0.00 | 31 | 1022.3 |
| 20260502121750 | 23 | 102 | 8.0 | 19.3 | 0.00 | 0.00 | 0.00 | 31 | 1022.2 |
| 20260502121644 | 23 | 48 | 3.2 | 19.3 | 0.00 | 0.00 | 0.00 | 30 | 1022.3 |
| 20260502121524 | 23 | 98 | 3.2 | 19.3 | 0.00 | 0.00 | 0.00 | 29 | 1022.3 |
| 20260502121405 | 23 | 114 | 6.4 | 19.3 | 0.00 | 0.00 | 0.00 | 30 | 1022.3 |
| 20260502121238 | 23 | 87 | 9.7 | 19.3 | 0.00 | 0.00 | 0.00 | 29 | 1022.4 |
| 20260502121144 | 23 | 60 | 9.7 | 19.3 | 0.00 | 0.00 | 0.00 | 27 | 1022.4 |
| 20260502121044 | 23 | 117 | 11.3 | 19.3 | 0.00 | 0.00 | 0.00 | 29 | 1022.4 |
| 20260502121010 | 23 | 93 | 11.3 | 17.7 | 0.00 | 0.00 | 0.00 | 29 | 1022.1 |
| 20260502120939 | 23 | 100 | 11.3 | 19.3 | 0.00 | 0.00 | 0.00 | 30 | 1022.4 |
| 20260502120840 | 23 | 89 | 11.3 | 19.3 | 0.00 | 0.00 | 0.00 | 30 | 1022.4 |
| 20260502120722 | 23 | 107 | 9.7 | 19.3 | 0.00 | 0.00 | 0.00 | 30 | 1022.4 |
| 20260502120624 | 23 | 98 | 6.4 | 19.3 | 0.00 | 0.00 | 0.00 | 29 | 1022.4 |
| 20260502120601 | 23 | 103 | 4.8 | 19.3 | 0.00 | 0.00 | 0.00 | 29 | 1022.2 |
| 20260502120521 | 23 | 118 | 8.0 | 19.3 | 0.00 | 0.00 | 0.00 | 29 | 1022.5 |
| 20260502120402 | 23 | 93 | 11.3 | 19.3 | 0.00 | 0.00 | 0.00 | 30 | 1022.4 |
| 20260502120306 | 23 | 147 | 12.9 | 19.3 | 0.00 | 0.00 | 0.00 | 28 | 1022.4 |
| 20260502120156 | 23 | 107 | 11.3 | 19.3 | 0.00 | 0.00 | 0.00 | 29 | 1022.4 |
| 20260502115914 | 23 | 118 | 12.9 | 19.3 | 0.00 | 0.00 | 0.00 | 30 | 1022.4 |
| 20260502115818 | 23 | 91 | 9.7 | 19.3 | 0.00 | 0.00 | 0.00 | 31 | 1022.5 |
| 20260502115655 | 23 | 112 | 6.4 | 14.5 | 0.00 | 0.00 | 0.00 | 29 | 1022.5 |
| 20260502115555 | 23 | 77 | 6.4 | 14.5 | 0.00 | 0.00 | 0.00 | 30 | 1022.5 |
| 20260502115457 | 23 | 94 | 8.0 | 16.1 | 0.00 | 0.00 | 0.00 | 29 | 1022.5 |
| 20260502115401 | 23 | 78 | 8.0 | 17.7 | 0.00 | 0.00 | 0.00 | 30 | 1022.5 |
| 20260502115254 | 23 | 84 | 6.4 | 17.7 | 0.00 | 0.00 | 0.00 | 29 | 1022.5 |
| 20260502115154 | 23 | 101 | 4.8 | 17.7 | 0.00 | 0.00 | 0.00 | 30 | 1022.5 |
| 20260502115059 | 23 | 74 | 4.8 | 19.3 | 0.00 | 0.00 | 0.00 | 31 | 1022.6 |
| 20260502115026 | 22 | 93 | 4.8 | 19.3 | 0.00 | 0.00 | 0.00 | 31 | 1022.4 |
| 20260502114952 | 23 | 77 | 6.4 | 19.3 | 0.00 | 0.00 | 0.00 | 30 | 1022.6 |
| 20260502114834 | 23 | 64 | 9.7 | 19.3 | 0.00 | 0.00 | 0.00 | 28 | 1022.6 |
| 20260502114738 | 23 | 112 | 11.3 | 19.3 | 0.00 | 0.00 | 0.00 | 29 | 1022.6 |
| 20260502114620 | 23 | 69 | 9.7 | 19.3 | 0.00 | 0.00 | 0.00 | 29 | 1022.6 |
| 20260502114555 | 22 | 56 | 9.7 | 19.3 | 0.00 | 0.00 | 0.00 | 30 | 1022.4 |
| 20260502114512 | 23 | 69 | 9.7 | 19.3 | 0.00 | 0.00 | 0.00 | 31 | 1022.6 |
| 20260502114354 | 23 | 87 | 11.3 | 19.3 | 0.00 | 0.00 | 0.00 | 31 | 1022.6 |
| 20260502114133 | 23 | 63 | 8.0 | 17.7 | 0.00 | 0.00 | 0.00 | 30 | 1022.7 |
| 20260502114033 | 23 | 56 | 6.4 | 22.5 | 0.00 | 0.00 | 0.00 | 30 | 1022.7 |
| 20260502113937 | 23 | 80 | 9.7 | 22.5 | 0.00 | 0.00 | 0.00 | 31 | 1022.7 |
| 20260502113839 | 23 | 97 | 9.7 | 22.5 | 0.00 | 0.00 | 0.00 | 30 | 1022.7 |
| 20260502113734 | 23 | 75 | 9.7 | 22.5 | 0.00 | 0.00 | 0.00 | 31 | 1022.7 |
| 20260502113639 | 23 | 76 | 8.0 | 22.5 | 0.00 | 0.00 | 0.00 | 30 | 1022.7 |
| 20260502113540 | 23 | 78 | 8.0 | 22.5 | 0.00 | 0.00 | 0.00 | 29 | 1022.8 |
| 20260502113442 | 23 | 81 | 9.7 | 22.5 | 0.00 | 0.00 | 0.00 | 30 | 1022.7 |
| 20260502113335 | 22 | 78 | 12.9 | 22.5 | 0.00 | 0.00 | 0.00 | 29 | 1022.8 |
| 20260502113151 | 22 | 120 | 12.9 | 22.5 | 0.00 | 0.00 | 0.00 | 29 | 1022.8 |
| 20260502113052 | 22 | 120 | 8.0 | 16.1 | 0.00 | 0.00 | 0.00 | 28 | 1022.7 |
| 20260502113029 | 22 | 103 | 6.4 | 16.1 | 0.00 | 0.00 | 0.00 | 30 | 1022.5 |
| 20260502112924 | 22 | 89 | 8.0 | 16.1 | 0.00 | 0.00 | 0.00 | 30 | 1022.8 |
| 20260502112830 | 22 | 70 | 8.0 | 16.1 | 0.00 | 0.00 | 0.00 | 29 | 1022.8 |
| 20260502112712 | 22 | 37 | 8.0 | 16.1 | 0.00 | 0.00 | 0.00 | 28 | 1022.8 |
| 20260502112635 | 22 | 49 | 6.4 | 16.1 | 0.00 | 0.00 | 0.00 | 28 | 1022.7 |
| 20260502112602 | 22 | 49 | 8.0 | 16.1 | 0.00 | 0.00 | 0.00 | 29 | 1022.9 |
| 20260502112444 | 22 | 69 | 11.3 | 16.1 | 0.00 | 0.00 | 0.00 | 30 | 1022.9 |
| 20260502112347 | 22 | 111 | 11.3 | 16.1 | 0.00 | 0.00 | 0.00 | 31 | 1023.0 |
| 20260502112247 | 22 | 97 | 11.3 | 16.1 | 0.00 | 0.00 | 0.00 | 32 | 1023.0 |
| 20260502112013 | 22 | 68 | 6.4 | 12.9 | 0.00 | 0.00 | 0.00 | 35 | 1023.0 |
| 20260502111855 | 22 | 51 | 6.4 | 11.3 | 0.00 | 0.00 | 0.00 | 35 | 1023.0 |
| 20260502111749 | 22 | 93 | 6.4 | 11.3 | 0.00 | 0.00 | 0.00 | 36 | 1023.1 |
| 20260502111653 | 22 | 78 | 6.4 | 16.1 | 0.00 | 0.00 | 0.00 | 36 | 1023.1 |
| 20260502111555 | 22 | 102 | 6.4 | 16.1 | 0.00 | 0.00 | 0.00 | 38 | 1023.0 |
| 20260502111524 | 22 | 103 | 4.8 | 16.1 | 0.00 | 0.00 | 0.00 | 38 | 1022.9 |
| 20260502111429 | 22 | 73 | 4.8 | 16.1 | 0.00 | 0.00 | 0.00 | 35 | 1023.1 |
| 20260502111336 | 22 | 16 | 6.4 | 17.7 | 0.00 | 0.00 | 0.00 | 37 | 1023.1 |
| 20260502111216 | 22 | 97 | 4.8 | 17.7 | 0.00 | 0.00 | 0.00 | 35 | 1023.1 |
| 20260502111152 | 22 | 79 | 4.8 | 17.7 | 0.00 | 0.00 | 0.00 | 35 | 1022.9 |
| 20260502111046 | 22 | 101 | 8.0 | 17.7 | 0.00 | 0.00 | 0.00 | 35 | 1023.2 |
| 20260502110948 | 22 | 91 | 6.4 | 17.7 | 0.00 | 0.00 | 0.00 | 35 | 1023.2 |
| 20260502110852 | 22 | 102 | 6.4 | 17.7 | 0.00 | 0.00 | 0.00 | 34 | 1023.2 |
| 20260502110727 | 22 | 99 | 8.0 | 17.7 | 0.00 | 0.00 | 0.00 | 35 | 1023.2 |
| 20260502110613 | 22 | 98 | 11.3 | 19.3 | 0.00 | 0.00 | 0.00 | 36 | 1023.2 |
| 20260502110514 | 22 | 100 | 9.7 | 19.3 | 0.00 | 0.00 | 0.00 | 36 | 1023.2 |
| 20260502110406 | 22 | 35 | 8.0 | 20.9 | 0.00 | 0.00 | 0.00 | 34 | 1023.2 |
| 20260502110308 | 22 | 89 | 11.3 | 20.9 | 0.00 | 0.00 | 0.00 | 35 | 1023.2 |
| 20260502110126 | 22 | 104 | 12.9 | 20.9 | 0.00 | 0.00 | 0.00 | 34 | 1023.2 |
| 20260502110055 | 22 | 70 | 11.3 | 20.9 | 0.00 | 0.00 | 0.00 | 34 | 1023.1 |
| 20260502105956 | 22 | 128 | 11.3 | 20.9 | 0.00 | 0.00 | 0.00 | 34 | 1023.4 |
| 20260502105902 | 22 | 77 | 12.9 | 20.9 | 0.00 | 0.00 | 0.00 | 34 | 1023.3 |
| 20260502105806 | 22 | 78 | 9.7 | 20.9 | 0.00 | 0.00 | 0.00 | 35 | 1023.3 |
| 20260502105647 | 22 | 39 | 11.3 | 20.9 | 0.00 | 0.00 | 0.00 | 34 | 1023.4 |
| 20260502105621 | 22 | 55 | 11.3 | 20.9 | 0.00 | 0.00 | 0.00 | 33 | 1023.2 |
| 20260502105539 | 22 | 82 | 11.3 | 20.9 | 0.00 | 0.00 | 0.00 | 33 | 1023.4 |
| 20260502105442 | 22 | 91 | 8.0 | 17.7 | 0.00 | 0.00 | 0.00 | 36 | 1023.4 |
| 20260502105346 | 22 | 97 | 6.4 | 16.1 | 0.00 | 0.00 | 0.00 | 33 | 1023.4 |
| 20260502105238 | 22 | 82 | 8.0 | 16.1 | 0.00 | 0.00 | 0.00 | 33 | 1023.4 |
| 20260502105146 | 22 | 1 | 9.7 | 16.1 | 0.00 | 0.00 | 0.00 | 33 | 1023.4 |
| 20260502105046 | 22 | 87 | 4.8 | 16.1 | 0.00 | 0.00 | 0.00 | 34 | 1023.4 |
| 20260502104917 | 22 | 41 | 6.4 | 16.1 | 0.00 | 0.00 | 0.00 | 34 | 1023.5 |
| 20260502104758 | 22 | 72 | 8.0 | 16.1 | 0.00 | 0.00 | 0.00 | 35 | 1023.5 |
| 20260502104702 | 22 | 60 | 8.0 | 16.1 | 0.00 | 0.00 | 0.00 | 35 | 1023.5 |
| 20260502104625 | 22 | 66 | 6.4 | 16.1 | 0.00 | 0.00 | 0.00 | 35 | 1023.3 |
| 20260502104552 | 22 | 31 | 8.0 | 16.1 | 0.00 | 0.00 | 0.00 | 35 | 1023.5 |
| 20260502104459 | 22 | 114 | 6.4 | 16.1 | 0.00 | 0.00 | 0.00 | 35 | 1023.5 |
| 20260502104402 | 22 | 96 | 6.4 | 12.9 | 0.00 | 0.00 | 0.00 | 37 | 1023.6 |
| 20260502104304 | 22 | 90 | 4.8 | 14.5 | 0.00 | 0.00 | 0.00 | 37 | 1023.6 |
| 20260502104154 | 22 | 74 | 8.0 | 14.5 | 0.00 | 0.00 | 0.00 | 35 | 1023.5 |
| 20260502104054 | 22 | 112 | 8.0 | 19.3 | 0.00 | 0.00 | 0.00 | 36 | 1023.6 |
| 20260502103935 | 22 | 110 | 6.4 | 19.3 | 0.00 | 0.00 | 0.00 | 35 | 1023.6 |
| 20260502103829 | 22 | 89 | 8.0 | 19.3 | 0.00 | 0.00 | 0.00 | 34 | 1023.6 |
| 20260502103735 | 22 | 78 | 8.0 | 19.3 | 0.00 | 0.00 | 0.00 | 34 | 1023.7 |
| 20260502103638 | 22 | 82 | 9.7 | 19.3 | 0.00 | 0.00 | 0.00 | 33 | 1023.7 |
| 20260502103538 | 22 | 66 | 9.7 | 19.3 | 0.00 | 0.00 | 0.00 | 34 | 1023.7 |
| 20260502103513 | 22 | 78 | 9.7 | 19.3 | 0.00 | 0.00 | 0.00 | 34 | 1023.5 |
| 20260502103432 | 22 | 84 | 11.3 | 19.3 | 0.00 | 0.00 | 0.00 | 33 | 1023.7 |
| 20260502103336 | 22 | 105 | 12.9 | 19.3 | 0.00 | 0.00 | 0.00 | 34 | 1023.7 |
| 20260502103215 | 22 | 89 | 11.3 | 19.3 | 0.00 | 0.00 | 0.00 | 35 | 1023.7 |
| 20260502103144 | 22 | 92 | 9.7 | 19.3 | 0.00 | 0.00 | 0.00 | 35 | 1023.5 |
| 20260502103113 | 22 | 84 | 8.0 | 17.7 | 0.00 | 0.00 | 0.00 | 35 | 1023.7 |
| 20260502103012 | 22 | 89 | 6.4 | 17.7 | 0.00 | 0.00 | 0.00 | 33 | 1023.7 |
| 20260502102854 | 22 | 66 | 6.4 | 17.7 | 0.00 | 0.00 | 0.00 | 33 | 1023.7 |
| 20260502102729 | 22 | 95 | 11.3 | 17.7 | 0.00 | 0.00 | 0.00 | 33 | 1023.8 |
| 20260502102631 | 22 | 92 | 9.7 | 17.7 | 0.00 | 0.00 | 0.00 | 34 | 1023.8 |
| 20260502102511 | 22 | 115 | 6.4 | 12.9 | 0.00 | 0.00 | 0.00 | 33 | 1023.8 |
| 20260502102409 | 22 | 108 | 4.8 | 16.1 | 0.00 | 0.00 | 0.00 | 33 | 1023.8 |
| 20260502102312 | 22 | 99 | 4.8 | 16.1 | 0.00 | 0.00 | 0.00 | 33 | 1023.8 |
| 20260502102213 | 22 | 74 | 3.2 | 16.1 | 0.00 | 0.00 | 0.00 | 34 | 1023.8 |
| 20260502102141 | 22 | 103 | 3.2 | 16.1 | 0.00 | 0.00 | 0.00 | 34 | 1023.6 |
| 20260502102102 | 22 | 55 | 4.8 | 16.1 | 0.00 | 0.00 | 0.00 | 32 | 1023.8 |
| 20260502102005 | 22 | 48 | 4.8 | 16.1 | 0.00 | 0.00 | 0.00 | 33 | 1023.8 |
| 20260502101908 | 22 | 89 | 6.4 | 16.1 | 0.00 | 0.00 | 0.00 | 35 | 1023.8 |
| 20260502101749 | 22 | 97 | 8.0 | 16.1 | 0.00 | 0.00 | 0.00 | 34 | 1023.9 |
| 20260502101645 | 22 | 70 | 9.7 | 16.1 | 0.00 | 0.00 | 0.00 | 34 | 1023.9 |
| 20260502101451 | 22 | 76 | 4.8 | 12.9 | 0.00 | 0.00 | 0.00 | 33 | 1023.9 |
| 20260502101153 | 22 | 229 | 1.6 | 12.9 | 0.00 | 0.00 | 0.00 | 33 | 1024.0 |
| 20260502101054 | 22 | 239 | 1.6 | 12.9 | 0.00 | 0.00 | 0.00 | 35 | 1024.0 |
| 20260502101020 | 22 | 333 | 1.6 | 12.9 | 0.00 | 0.00 | 0.00 | 34 | 1023.8 |
| 20260502100932 | 22 | 328 | 4.8 | 12.9 | 0.00 | 0.00 | 0.00 | 34 | 1024.0 |
| 20260502100835 | 22 | 76 | 4.8 | 16.1 | 0.00 | 0.00 | 0.00 | 36 | 1024.1 |
| 20260502100736 | 22 | 90 | 6.4 | 16.1 | 0.00 | 0.00 | 0.00 | 34 | 1024.1 |
| 20260502100630 | 22 | 95 | 9.7 | 16.1 | 0.00 | 0.00 | 0.00 | 35 | 1024.1 |
| 20260502100532 | 22 | 86 | 6.4 | 16.1 | 0.00 | 0.00 | 0.00 | 36 | 1024.1 |
| 20260502100414 | 22 | 67 | 4.8 | 16.1 | 0.00 | 0.00 | 0.00 | 36 | 1024.1 |
| 20260502100307 | 22 | 95 | 4.8 | 16.1 | 0.00 | 0.00 | 0.00 | 37 | 1024.1 |
| 20260502100211 | 22 | 85 | 6.4 | 16.1 | 0.00 | 0.00 | 0.00 | 35 | 1024.1 |
| 20260502091534 | 21 | 76 | 4.8 | 11.3 | 0.00 | 0.00 | 0.00 | 40 | 1024.8 |
| 20260502091438 | 21 | 70 | 4.8 | 11.3 | 0.00 | 0.00 | 0.00 | 43 | 1024.8 |
| 20260502091346 | 21 | 70 | 3.2 | 11.3 | 0.00 | 0.00 | 0.00 | 41 | 1024.8 |
| 20260502091237 | 21 | 53 | 4.8 | 11.3 | 0.00 | 0.00 | 0.00 | 41 | 1024.8 |
| 20260502091118 | 21 | 30 | 6.4 | 11.3 | 0.00 | 0.00 | 0.00 | 40 | 1024.7 |
| 20260502091020 | 21 | 47 | 6.4 | 11.3 | 0.00 | 0.00 | 0.00 | 41 | 1024.8 |
| 20260502090923 | 21 | 83 | 4.8 | 9.7 | 0.00 | 0.00 | 0.00 | 40 | 1024.8 |
| 20260502090817 | 21 | 78 | 3.2 | 9.7 | 0.00 | 0.00 | 0.00 | 41 | 1024.9 |
| 20260502090659 | 21 | 36 | 1.6 | 9.7 | 0.00 | 0.00 | 0.00 | 41 | 1024.8 |
| 20260502090607 | 21 | 36 | 3.2 | 9.7 | 0.00 | 0.00 | 0.00 | 41 | 1024.8 |
| 20260502090529 | 21 | 35 | 3.2 | 9.7 | 0.00 | 0.00 | 0.00 | 41 | 1024.7 |
| 20260502090458 | 21 | 35 | 6.4 | 9.7 | 0.00 | 0.00 | 0.00 | 41 | 1024.8 |
| 20260502090359 | 21 | 59 | 3.2 | 9.7 | 0.00 | 0.00 | 0.00 | 41 | 1024.9 |
| 20260502090218 | 21 | 41 | 4.8 | 9.7 | 0.00 | 0.00 | 0.00 | 41 | 1024.9 |
| 20260502090121 | 21 | 96 | 4.8 | 9.7 | 0.00 | 0.00 | 0.00 | 41 | 1024.9 |
| 20260502071516 | 16 | 16 | 0.0 | 1.6 | 0.00 | 0.00 | 0.00 | 58 | 1025.5 |
| 20260502071419 | 16 | 16 | 0.0 | 3.2 | 0.00 | 0.00 | 0.00 | 58 | 1025.6 |
| 20260502071313 | 16 | 16 | 0.0 | 3.2 | 0.00 | 0.00 | 0.00 | 59 | 1025.6 |
| 20260502071215 | 16 | 16 | 0.0 | 3.2 | 0.00 | 0.00 | 0.00 | 59 | 1025.6 |
| 20260502071124 | 16 | 16 | 0.0 | 3.2 | 0.00 | 0.00 | 0.00 | 59 | 1025.5 |
| 20260502071026 | 16 | 16 | 0.0 | 3.2 | 0.00 | 0.00 | 0.00 | 60 | 1025.6 |
| 20260502071003 | 15 | 16 | 0.0 | 3.2 | 0.00 | 0.00 | 0.00 | 61 | 1025.5 |
| 20260502070920 | 16 | 16 | 0.0 | 4.8 | 0.00 | 0.00 | 0.00 | 62 | 1025.5 |
| 20260502070824 | 15 | 16 | 0.0 | 4.8 | 0.00 | 0.00 | 0.00 | 61 | 1025.5 |
| 20260502070727 | 15 | 16 | 0.0 | 4.8 | 0.00 | 0.00 | 0.00 | 61 | 1025.5 |
| 20260502070659 | 15 | 16 | 0.0 | 4.8 | 0.00 | 0.00 | 0.00 | 61 | 1025.5 |
| 20260502070621 | 15 | 16 | 1.6 | 4.8 | 0.00 | 0.00 | 0.00 | 62 | 1025.5 |
| 20260502070500 | 15 | 16 | 1.6 | 4.8 | 0.00 | 0.00 | 0.00 | 63 | 1025.5 |
| 20260502070408 | 15 | 355 | 1.6 | 4.8 | 0.00 | 0.00 | 0.00 | 63 | 1025.5 |
| 20260502070310 | 15 | 298 | 1.6 | 4.8 | 0.00 | 0.00 | 0.00 | 63 | 1025.5 |
| 20260502070143 | 15 | 295 | 1.6 | 4.8 | 0.00 | 0.00 | 0.00 | 64 | 1025.6 |
| 20260502070044 | 15 | 220 | 1.6 | 3.2 | 0.00 | 0.00 | 0.00 | 66 | 1025.5 |
| 20260502065945 | 14 | 220 | 0.0 | 3.2 | 0.00 | 0.00 | 0.00 | 65 | 1025.6 |
| 20260502065817 | 14 | 220 | 0.0 | 3.2 | 0.00 | 0.00 | 0.00 | 65 | 1025.6 |
| 20260502065725 | 14 | 220 | 0.0 | 3.2 | 0.00 | 0.00 | 0.00 | 66 | 1025.6 |
| 20260502065628 | 14 | 220 | 0.0 | 3.2 | 0.00 | 0.00 | 0.00 | 67 | 1025.6 |
| 20260502065551 | 13 | 220 | 0.0 | 3.2 | 0.00 | 0.00 | 0.00 | 67 | 1025.6 |
| 20260502065519 | 14 | 220 | 0.0 | 3.2 | 0.00 | 0.00 | 0.00 | 67 | 1025.6 |
| 20260502065422 | 13 | 220 | 1.6 | 3.2 | 0.00 | 0.00 | 0.00 | 68 | 1025.6 |
| 20260502065325 | 13 | 220 | 1.6 | 4.8 | 0.00 | 0.00 | 0.00 | 68 | 1025.6 |
| 20260502065226 | 13 | 220 | 1.6 | 4.8 | 0.00 | 0.00 | 0.00 | 69 | 1025.6 |
| 20260502065159 | 13 | 220 | 1.6 | 4.8 | 0.00 | 0.00 | 0.00 | 67 | 1025.6 |
| 20260502065120 | 13 | 220 | 1.6 | 4.8 | 0.00 | 0.00 | 0.00 | 68 | 1025.6 |
| 20260502065023 | 13 | 220 | 0.0 | 4.8 | 0.00 | 0.00 | 0.00 | 68 | 1025.6 |
| 20260502064738 | 13 | 220 | 1.6 | 4.8 | 0.00 | 0.00 | 0.00 | 68 | 1025.6 |
| 20260502064631 | 13 | 220 | 1.6 | 4.8 | 0.00 | 0.00 | 0.00 | 68 | 1025.6 |
| 20260502064531 | 13 | 220 | 3.2 | 4.8 | 0.00 | 0.00 | 0.00 | 69 | 1025.6 |
| 20260502064434 | 13 | 220 | 3.2 | 4.8 | 0.00 | 0.00 | 0.00 | 68 | 1025.6 |
| 20260502064328 | 12 | 220 | 1.6 | 4.8 | 0.00 | 0.00 | 0.00 | 69 | 1025.6 |
| 20260502064234 | 12 | 97 | 1.6 | 3.2 | 0.00 | 0.00 | 0.00 | 69 | 1025.7 |
| 20260502064116 | 12 | 97 | 1.6 | 3.2 | 0.00 | 0.00 | 0.00 | 70 | 1025.6 |
| 20260502064017 | 12 | 97 | 0.0 | 3.2 | 0.00 | 0.00 | 0.00 | 71 | 1025.6 |
| 20260502063909 | 12 | 97 | 0.0 | 4.8 | 0.00 | 0.00 | 0.00 | 71 | 1025.6 |
| 20260502063812 | 12 | 97 | 0.0 | 4.8 | 0.00 | 0.00 | 0.00 | 71 | 1025.7 |
| 20260502063714 | 12 | 97 | 0.0 | 4.8 | 0.00 | 0.00 | 0.00 | 71 | 1025.6 |
| 20260502063620 | 12 | 97 | 0.0 | 4.8 | 0.00 | 0.00 | 0.00 | 72 | 1025.7 |
| 20260502063556 | 11 | 97 | 0.0 | 4.8 | 0.00 | 0.00 | 0.00 | 72 | 1025.7 |
| 20260502063512 | 12 | 97 | 0.0 | 4.8 | 0.00 | 0.00 | 0.00 | 72 | 1025.7 |
| 20260502063354 | 12 | 97 | 1.6 | 4.8 | 0.00 | 0.00 | 0.00 | 73 | 1025.7 |
| 20260502063256 | 12 | 97 | 1.6 | 4.8 | 0.00 | 0.00 | 0.00 | 73 | 1025.7 |
| 20260502063148 | 11 | 97 | 1.6 | 4.8 | 0.00 | 0.00 | 0.00 | 73 | 1025.7 |
| 20260502063048 | 11 | 97 | 0.0 | 0.0 | 0.00 | 0.00 | 0.00 | 74 | 1025.7 |
| 20260502062951 | 11 | 97 | 0.0 | 0.0 | 0.00 | 0.00 | 0.00 | 74 | 1025.7 |
| 20260502062830 | 11 | 97 | 0.0 | 1.6 | 0.00 | 0.00 | 0.00 | 74 | 1025.7 |
| 20260502062731 | 11 | 97 | 0.0 | 3.2 | 0.00 | 0.00 | 0.00 | 74 | 1025.7 |
| 20260502062614 | 11 | 97 | 0.0 | 3.2 | 0.00 | 0.00 | 0.00 | 74 | 1025.7 |
| 20260502062553 | 11 | 97 | 0.0 | 3.2 | 0.00 | 0.00 | 0.00 | 74 | 1025.7 |
| 20260502062505 | 11 | 97 | 0.0 | 3.2 | 0.00 | 0.00 | 0.00 | 74 | 1025.7 |
| 20260502062408 | 11 | 97 | 0.0 | 3.2 | 0.00 | 0.00 | 0.00 | 75 | 1025.7 |
| 20260502062310 | 11 | 97 | 0.0 | 3.2 | 0.00 | 0.00 | 0.00 | 75 | 1025.7 |
| 20260502062207 | 11 | 97 | 0.0 | 3.2 | 0.00 | 0.00 | 0.00 | 75 | 1025.7 |
| 20260502062026 | 11 | 97 | 1.6 | 4.8 | 0.00 | 0.00 | 0.00 | 75 | 1025.8 |
| 20260502061929 | 11 | 97 | 1.6 | 4.8 | 0.00 | 0.00 | 0.00 | 75 | 1025.7 |
| 20260502061813 | 10 | 97 | 1.6 | 4.8 | 0.00 | 0.00 | 0.00 | 76 | 1025.7 |
| 20260502061705 | 10 | 97 | 0.0 | 4.8 | 0.00 | 0.00 | 0.00 | 76 | 1025.8 |
| 20260502061610 | 10 | 97 | 0.0 | 4.8 | 0.00 | 0.00 | 0.00 | 75 | 1025.8 |
| 20260502061407 | 10 | 97 | 3.2 | 4.8 | 0.00 | 0.00 | 0.00 | 76 | 1025.8 |
| 20260502061309 | 10 | 97 | 3.2 | 4.8 | 0.00 | 0.00 | 0.00 | 77 | 1025.8 |
| 20260502061148 | 10 | 97 | 1.6 | 4.8 | 0.00 | 0.00 | 0.00 | 77 | 1025.7 |
| 20260502061049 | 10 | 97 | 3.2 | 4.8 | 0.00 | 0.00 | 0.00 | 77 | 1025.8 |
| 20260502061026 | 10 | 97 | 1.6 | 4.8 | 0.00 | 0.00 | 0.00 | 77 | 1025.8 |
| 20260502060921 | 10 | 97 | 3.2 | 4.8 | 0.00 | 0.00 | 0.00 | 77 | 1025.8 |
| 20260502060825 | 10 | 97 | 1.6 | 4.8 | 0.00 | 0.00 | 0.00 | 78 | 1025.8 |
| 20260502060731 | 10 | 97 | 1.6 | 4.8 | 0.00 | 0.00 | 0.00 | 78 | 1025.8 |
| 20260502060631 | 9 | 97 | 0.0 | 4.8 | 0.00 | 0.00 | 0.00 | 78 | 1025.8 |
| 20260502060538 | 10 | 97 | 1.6 | 4.8 | 0.00 | 0.00 | 0.00 | 78 | 1025.8 |
| 20260502060441 | 10 | 97 | 3.2 | 4.8 | 0.00 | 0.00 | 0.00 | 79 | 1025.9 |
| 20260502060343 | 10 | 97 | 1.6 | 4.8 | 0.00 | 0.00 | 0.00 | 80 | 1025.8 |
| 20260502060224 | 9 | 97 | 1.6 | 4.8 | 0.00 | 0.00 | 0.00 | 80 | 1025.7 |
| 20260502060127 | 9 | 97 | 1.6 | 3.2 | 0.00 | 0.00 | 0.00 | 81 | 1025.8 |
| 20260502060111 | 9 | 97 | 1.6 | 3.2 | 0.00 | 0.00 | 0.00 | 81 | 1025.8 |
| 20260502060023 | 9 | 97 | 1.6 | 3.2 | 0.00 | 0.00 | 0.00 | 81 | 1025.8 |
| 20260502055758 | 9 | 97 | 1.6 | 3.2 | 0.00 | 0.00 | 0.00 | 82 | 1025.7 |
| 20260502055651 | 9 | 97 | 1.6 | 3.2 | 0.00 | 0.00 | 0.00 | 82 | 1025.8 |
| 20260502055531 | 8 | 97 | 0.0 | 0.0 | 0.00 | 0.00 | 0.00 | 82 | 1025.8 |
| 20260502055413 | 8 | 97 | 0.0 | 0.0 | 0.00 | 0.00 | 0.00 | 82 | 1025.8 |
| 20260502055307 | 8 | 97 | 0.0 | 0.0 | 0.00 | 0.00 | 0.00 | 82 | 1025.8 |
| 20260502055212 | 8 | 97 | 0.0 | 0.0 | 0.00 | 0.00 | 0.00 | 83 | 1025.8 |
| 20260502055115 | 8 | 97 | 0.0 | 0.0 | 0.00 | 0.00 | 0.00 | 83 | 1025.8 |
| 20260502055017 | 8 | 97 | 0.0 | 0.0 | 0.00 | 0.00 | 0.00 | 83 | 1025.8 |
| 20260502054830 | 8 | 97 | 0.0 | 0.0 | 0.00 | 0.00 | 0.00 | 83 | 1025.8 |
| 20260502054731 | 8 | 97 | 0.0 | 0.0 | 0.00 | 0.00 | 0.00 | 84 | 1025.7 |
| 20260502054603 | 8 | 97 | 0.0 | 0.0 | 0.00 | 0.00 | 0.00 | 84 | 1025.7 |
| 20260502054510 | 8 | 97 | 0.0 | 0.0 | 0.00 | 0.00 | 0.00 | 84 | 1025.7 |
| 20260502054412 | 8 | 97 | 0.0 | 0.0 | 0.00 | 0.00 | 0.00 | 85 | 1025.7 |
| 20260502054244 | 8 | 97 | 0.0 | 0.0 | 0.00 | 0.00 | 0.00 | 86 | 1025.7 |
| 20260502054146 | 7 | 97 | 0.0 | 0.0 | 0.00 | 0.00 | 0.00 | 86 | 1025.7 |
| 20260502054044 | 7 | 97 | 0.0 | 0.0 | 0.00 | 0.00 | 0.00 | 87 | 1025.8 |
| 20260502054007 | 7 | 97 | 0.0 | 0.0 | 0.00 | 0.00 | 0.00 | 87 | 1025.8 |
| 20260502053937 | 7 | 97 | 0.0 | 0.0 | 0.00 | 0.00 | 0.00 | 87 | 1025.8 |
| 20260502053840 | 7 | 97 | 0.0 | 0.0 | 0.00 | 0.00 | 0.00 | 87 | 1025.8 |
| 20260502053747 | 7 | 97 | 0.0 | 0.0 | 0.00 | 0.00 | 0.00 | 87 | 1025.7 |
| 20260502053650 | 7 | 97 | 0.0 | 0.0 | 0.00 | 0.00 | 0.00 | 87 | 1025.7 |
| 20260502053553 | 7 | 97 | 0.0 | 0.0 | 0.00 | 0.00 | 0.00 | 87 | 1025.8 |
| 20260502053521 | 7 | 97 | 0.0 | 0.0 | 0.00 | 0.00 | 0.00 | 87 | 1025.8 |
| 20260502053342 | 7 | 97 | 0.0 | 0.0 | 0.00 | 0.00 | 0.00 | 87 | 1025.8 |
| 20260502053244 | 7 | 97 | 0.0 | 0.0 | 0.00 | 0.00 | 0.00 | 88 | 1025.8 |
| 20260502053147 | 7 | 97 | 0.0 | 0.0 | 0.00 | 0.00 | 0.00 | 88 | 1025.8 |
| 20260502053102 | 6 | 97 | 0.0 | 0.0 | 0.00 | 0.00 | 0.00 | 88 | 1025.9 |
| 20260502053021 | 7 | 97 | 0.0 | 0.0 | 0.00 | 0.00 | 0.00 | 88 | 1025.8 |
| 20260502052922 | 7 | 97 | 0.0 | 0.0 | 0.00 | 0.00 | 0.00 | 88 | 1025.8 |
| 20260502052826 | 7 | 97 | 0.0 | 0.0 | 0.00 | 0.00 | 0.00 | 88 | 1025.8 |
| 20260502052720 | 6 | 97 | 0.0 | 0.0 | 0.00 | 0.00 | 0.00 | 88 | 1025.8 |
| 20260502052621 | 6 | 97 | 0.0 | 0.0 | 0.00 | 0.00 | 0.00 | 89 | 1025.8 |
| 20260502052325 | 6 | 97 | 0.0 | 0.0 | 0.00 | 0.00 | 0.00 | 89 | 1025.8 |
| 20260502052209 | 6 | 97 | 0.0 | 1.6 | 0.00 | 0.00 | 0.00 | 89 | 1025.8 |
| 20260502052112 | 6 | 97 | 0.0 | 1.6 | 0.00 | 0.00 | 0.00 | 89 | 1025.8 |
| 20260502052014 | 6 | 97 | 0.0 | 1.6 | 0.00 | 0.00 | 0.00 | 89 | 1025.8 |
| 20260502051908 | 6 | 97 | 0.0 | 1.6 | 0.00 | 0.00 | 0.00 | 88 | 1025.8 |
| 20260502051812 | 6 | 97 | 0.0 | 1.6 | 0.00 | 0.00 | 0.00 | 89 | 1025.8 |
| 20260502051715 | 6 | 97 | 0.0 | 3.2 | 0.00 | 0.00 | 0.00 | 89 | 1025.8 |
| 20260502051645 | 6 | 97 | 0.0 | 3.2 | 0.00 | 0.00 | 0.00 | 89 | 1025.8 |
| 20260502051607 | 6 | 97 | 0.0 | 3.2 | 0.00 | 0.00 | 0.00 | 89 | 1025.8 |
| 20260502051451 | 6 | 97 | 1.6 | 3.2 | 0.00 | 0.00 | 0.00 | 89 | 1025.8 |
| 20260502051354 | 6 | 97 | 1.6 | 3.2 | 0.00 | 0.00 | 0.00 | 89 | 1025.8 |
| 20260502051257 | 6 | 97 | 0.0 | 3.2 | 0.00 | 0.00 | 0.00 | 89 | 1025.8 |
| 20260502051150 | 6 | 97 | 0.0 | 4.8 | 0.00 | 0.00 | 0.00 | 89 | 1025.8 |
| 20260502051051 | 6 | 97 | 1.6 | 4.8 | 0.00 | 0.00 | 0.00 | 89 | 1025.8 |
| 20260502050931 | 6 | 97 | 1.6 | 4.8 | 0.00 | 0.00 | 0.00 | 89 | 1025.7 |
| 20260502050838 | 6 | 97 | 1.6 | 4.8 | 0.00 | 0.00 | 0.00 | 89 | 1025.8 |
| 20260502050711 | 6 | 97 | 1.6 | 4.8 | 0.00 | 0.00 | 0.00 | 89 | 1025.7 |
| 20260502050615 | 5 | 97 | 3.2 | 4.8 | 0.00 | 0.00 | 0.00 | 89 | 1025.7 |
| 20260502050516 | 5 | 97 | 3.2 | 4.8 | 0.00 | 0.00 | 0.00 | 89 | 1025.7 |
| 20260502050350 | 5 | 97 | 3.2 | 4.8 | 0.00 | 0.00 | 0.00 | 90 | 1025.7 |
| 20260502050252 | 5 | 97 | 3.2 | 4.8 | 0.00 | 0.00 | 0.00 | 90 | 1025.7 |
| 20260502050152 | 5 | 97 | 3.2 | 3.2 | 0.00 | 0.00 | 0.00 | 91 | 1025.8 |
| 20260502050117 | 5 | 97 | 1.6 | 3.2 | 0.00 | 0.00 | 0.00 | 91 | 1025.9 |
| 20260502050045 | 5 | 97 | 3.2 | 3.2 | 0.00 | 0.00 | 0.00 | 91 | 1025.7 |
| 20260502045929 | 5 | 97 | 1.6 | 3.2 | 0.00 | 0.00 | 0.00 | 91 | 1025.7 |
| 20260502045824 | 5 | 97 | 1.6 | 3.2 | 0.00 | 0.00 | 0.00 | 91 | 1025.7 |
| 20260502045728 | 5 | 97 | 1.6 | 3.2 | 0.00 | 0.00 | 0.00 | 91 | 1025.7 |
| 20260502045611 | 5 | 97 | 1.6 | 3.2 | 0.00 | 0.00 | 0.00 | 91 | 1025.7 |
| 20260502045510 | 5 | 97 | 0.0 | 0.0 | 0.00 | 0.00 | 0.00 | 91 | 1025.7 |
| 20260502045409 | 5 | 97 | 0.0 | 0.0 | 0.00 | 0.00 | 0.00 | 91 | 1025.7 |
| 20260502045311 | 5 | 97 | 0.0 | 0.0 | 0.00 | 0.00 | 0.00 | 91 | 1025.7 |
| 20260502045212 | 5 | 97 | 0.0 | 0.0 | 0.00 | 0.00 | 0.00 | 91 | 1025.7 |
| 20260502045140 | 4 | 97 | 0.0 | 0.0 | 0.00 | 0.00 | 0.00 | 90 | 1025.8 |
| 20260502045107 | 5 | 97 | 0.0 | 0.0 | 0.00 | 0.00 | 0.00 | 90 | 1025.7 |
| 20260502044839 | 5 | 97 | 0.0 | 0.0 | 0.00 | 0.00 | 0.00 | 90 | 1025.7 |
| 20260502044744 | 5 | 97 | 0.0 | 0.0 | 0.00 | 0.00 | 0.00 | 90 | 1025.7 |
| 20260502044639 | 5 | 97 | 0.0 | 0.0 | 0.00 | 0.00 | 0.00 | 90 | 1025.7 |
| 20260502044518 | 5 | 97 | 0.0 | 0.0 | 0.00 | 0.00 | 0.00 | 90 | 1025.7 |
| 20260502044422 | 5 | 97 | 0.0 | 0.0 | 0.00 | 0.00 | 0.00 | 90 | 1025.7 |
| 20260502044255 | 4 | 97 | 0.0 | 0.0 | 0.00 | 0.00 | 0.00 | 90 | 1025.7 |
| 20260502044152 | 4 | 97 | 0.0 | 0.0 | 0.00 | 0.00 | 0.00 | 90 | 1025.7 |
| 20260502044052 | 4 | 97 | 0.0 | 0.0 | 0.00 | 0.00 | 0.00 | 90 | 1025.7 |
| 20260502044014 | 4 | 97 | 0.0 | 0.0 | 0.00 | 0.00 | 0.00 | 90 | 1025.8 |
| 20260502043930 | 4 | 97 | 0.0 | 0.0 | 0.00 | 0.00 | 0.00 | 90 | 1025.6 |
| 20260502043834 | 4 | 97 | 0.0 | 0.0 | 0.00 | 0.00 | 0.00 | 90 | 1025.6 |
| 20260502043737 | 4 | 97 | 0.0 | 0.0 | 0.00 | 0.00 | 0.00 | 90 | 1025.6 |
| 20260502043630 | 4 | 97 | 0.0 | 0.0 | 0.00 | 0.00 | 0.00 | 90 | 1025.6 |
| 20260502043531 | 4 | 97 | 0.0 | 0.0 | 0.00 | 0.00 | 0.00 | 90 | 1025.6 |
| 20260502043434 | 4 | 97 | 0.0 | 0.0 | 0.00 | 0.00 | 0.00 | 90 | 1025.6 |
| 20260502043319 | 4 | 97 | 0.0 | 0.0 | 0.00 | 0.00 | 0.00 | 89 | 1025.6 |
| 20260502043210 | 4 | 97 | 0.0 | 0.0 | 0.00 | 0.00 | 0.00 | 89 | 1025.6 |
| 20260502043112 | 4 | 97 | 0.0 | 0.0 | 0.00 | 0.00 | 0.00 | 89 | 1025.6 |
| 20260502043013 | 4 | 97 | 0.0 | 0.0 | 0.00 | 0.00 | 0.00 | 90 | 1025.6 |
| 20260502042906 | 4 | 97 | 0.0 | 0.0 | 0.00 | 0.00 | 0.00 | 89 | 1025.6 |
| 20260502042809 | 4 | 97 | 0.0 | 0.0 | 0.00 | 0.00 | 0.00 | 89 | 1025.6 |
| 20260502042652 | 4 | 97 | 0.0 | 0.0 | 0.00 | 0.00 | 0.00 | 89 | 1025.6 |
| 20260502042559 | 4 | 97 | 0.0 | 0.0 | 0.00 | 0.00 | 0.00 | 89 | 1025.6 |
| 20260502042536 | 4 | 97 | 0.0 | 0.0 | 0.00 | 0.00 | 0.00 | 89 | 1025.7 |
| 20260502042450 | 4 | 97 | 0.0 | 0.0 | 0.00 | 0.00 | 0.00 | 89 | 1025.6 |
| 20260502042353 | 4 | 97 | 0.0 | 0.0 | 0.00 | 0.00 | 0.00 | 89 | 1025.6 |
| 20260502042257 | 4 | 97 | 0.0 | 0.0 | 0.00 | 0.00 | 0.00 | 89 | 1025.6 |
| 20260502042150 | 4 | 97 | 0.0 | 0.0 | 0.00 | 0.00 | 0.00 | 89 | 1025.7 |
| 20260502042050 | 4 | 97 | 0.0 | 0.0 | 0.00 | 0.00 | 0.00 | 89 | 1025.6 |
| 20260502041936 | 4 | 97 | 0.0 | 0.0 | 0.00 | 0.00 | 0.00 | 90 | 1025.6 |
| 20260502041830 | 4 | 97 | 0.0 | 0.0 | 0.00 | 0.00 | 0.00 | 90 | 1025.6 |
| 20260502041734 | 4 | 97 | 0.0 | 0.0 | 0.00 | 0.00 | 0.00 | 90 | 1025.6 |
| 20260502041515 | 4 | 97 | 0.0 | 0.0 | 0.00 | 0.00 | 0.00 | 90 | 1025.7 |
| 20260502041435 | 4 | 97 | 0.0 | 0.0 | 0.00 | 0.00 | 0.00 | 91 | 1025.6 |
| 20260502041317 | 4 | 97 | 0.0 | 0.0 | 0.00 | 0.00 | 0.00 | 91 | 1025.6 |
| 20260502041158 | 4 | 97 | 0.0 | 0.0 | 0.00 | 0.00 | 0.00 | 91 | 1025.6 |
| 20260502041040 | 4 | 97 | 0.0 | 0.0 | 0.00 | 0.00 | 0.00 | 91 | 1025.6 |
| 20260502041014 | 4 | 97 | 0.0 | 0.0 | 0.00 | 0.00 | 0.00 | 91 | 1025.7 |
| 20260502040934 | 4 | 97 | 0.0 | 0.0 | 0.00 | 0.00 | 0.00 | 91 | 1025.6 |
| 20260502040838 | 4 | 97 | 0.0 | 0.0 | 0.00 | 0.00 | 0.00 | 91 | 1025.6 |
| 20260502040740 | 4 | 97 | 0.0 | 0.0 | 0.00 | 0.00 | 0.00 | 91 | 1025.6 |
| 20260502040634 | 4 | 97 | 0.0 | 0.0 | 0.00 | 0.00 | 0.00 | 91 | 1025.6 |
| 20260502040536 | 4 | 97 | 0.0 | 0.0 | 0.00 | 0.00 | 0.00 | 91 | 1025.5 |
| 20260502040439 | 4 | 97 | 0.0 | 0.0 | 0.00 | 0.00 | 0.00 | 91 | 1025.5 |
| 20260502040346 | 4 | 97 | 0.0 | 0.0 | 0.00 | 0.00 | 0.00 | 91 | 1025.6 |
| 20260502040238 | 4 | 97 | 0.0 | 0.0 | 0.00 | 0.00 | 0.00 | 91 | 1025.5 |
| 20260502040141 | 4 | 97 | 0.0 | 3.2 | 0.00 | 0.00 | 0.00 | 91 | 1025.5 |
| 20260502040043 | 4 | 97 | 0.0 | 4.8 | 0.00 | 0.00 | 0.00 | 91 | 1025.5 |
| 20260502040019 | 3 | 97 | 0.0 | 4.8 | 0.00 | 0.00 | 0.00 | 91 | 1025.6 |
| 20260502035937 | 4 | 97 | 0.0 | 4.8 | 0.00 | 0.00 | 0.00 | 91 | 1025.6 |
| 20260502035818 | 4 | 97 | 0.0 | 4.8 | 0.00 | 0.00 | 0.00 | 91 | 1025.5 |
| 20260502035704 | 4 | 97 | 0.0 | 4.8 | 0.00 | 0.00 | 0.00 | 91 | 1025.5 |
| 20260502035608 | 4 | 97 | 0.0 | 4.8 | 0.00 | 0.00 | 0.00 | 91 | 1025.5 |
| 20260502035540 | 3 | 97 | 0.0 | 4.8 | 0.00 | 0.00 | 0.00 | 91 | 1025.6 |
| 20260502035459 | 3 | 97 | 1.6 | 4.8 | 0.00 | 0.00 | 0.00 | 91 | 1025.5 |
| 20260502035342 | 3 | 97 | 3.2 | 4.8 | 0.00 | 0.00 | 0.00 | 90 | 1025.5 |
| 20260502035245 | 3 | 97 | 1.6 | 4.8 | 0.00 | 0.00 | 0.00 | 90 | 1025.5 |
| 20260502035139 | 3 | 97 | 0.0 | 0.0 | 0.00 | 0.00 | 0.00 | 89 | 1025.6 |
| 20260502035039 | 3 | 97 | 0.0 | 0.0 | 0.00 | 0.00 | 0.00 | 89 | 1025.5 |
| 20260502034947 | 3 | 97 | 0.0 | 0.0 | 0.00 | 0.00 | 0.00 | 89 | 1025.6 |
| 20260502034850 | 3 | 97 | 0.0 | 0.0 | 0.00 | 0.00 | 0.00 | 89 | 1025.5 |
| 20260502034744 | 3 | 97 | 0.0 | 0.0 | 0.00 | 0.00 | 0.00 | 89 | 1025.5 |
| 20260502034648 | 3 | 97 | 0.0 | 0.0 | 0.00 | 0.00 | 0.00 | 89 | 1025.5 |
| 20260502034550 | 3 | 97 | 0.0 | 0.0 | 0.00 | 0.00 | 0.00 | 89 | 1025.5 |
| 20260502034525 | 3 | 97 | 0.0 | 0.0 | 0.00 | 0.00 | 0.00 | 89 | 1025.6 |
| 20260502034444 | 3 | 97 | 0.0 | 0.0 | 0.00 | 0.00 | 0.00 | 89 | 1025.5 |
| 20260502034331 | 3 | 97 | 0.0 | 0.0 | 0.00 | 0.00 | 0.00 | 89 | 1025.6 |
| 20260502034224 | 3 | 97 | 0.0 | 0.0 | 0.00 | 0.00 | 0.00 | 89 | 1025.5 |
| 20260502034125 | 3 | 97 | 0.0 | 0.0 | 0.00 | 0.00 | 0.00 | 89 | 1025.5 |
| 20260502034005 | 3 | 97 | 0.0 | 0.0 | 0.00 | 0.00 | 0.00 | 88 | 1025.5 |
| 20260502033858 | 3 | 97 | 0.0 | 0.0 | 0.00 | 0.00 | 0.00 | 88 | 1025.5 |
| 20260502033802 | 3 | 97 | 0.0 | 0.0 | 0.00 | 0.00 | 0.00 | 88 | 1025.4 |
| 20260502033647 | 3 | 97 | 0.0 | 0.0 | 0.00 | 0.00 | 0.00 | 88 | 1025.5 |
| 20260502033548 | 3 | 97 | 0.0 | 0.0 | 0.00 | 0.00 | 0.00 | 88 | 1025.4 |
| 20260502033518 | 3 | 97 | 0.0 | 0.0 | 0.00 | 0.00 | 0.00 | 88 | 1025.5 |
| 20260502033443 | 3 | 97 | 0.0 | 0.0 | 0.00 | 0.00 | 0.00 | 87 | 1025.4 |
| 20260502033345 | 3 | 97 | 0.0 | 0.0 | 0.00 | 0.00 | 0.00 | 87 | 1025.4 |
| 20260502033248 | 3 | 97 | 0.0 | 0.0 | 0.00 | 0.00 | 0.00 | 87 | 1025.4 |
| 20260502033143 | 3 | 97 | 0.0 | 0.0 | 0.00 | 0.00 | 0.00 | 87 | 1025.4 |
| 20260502033027 | 3 | 97 | 0.0 | 0.0 | 0.00 | 0.00 | 0.00 | 87 | 1025.5 |
| 20260502032910 | 3 | 97 | 0.0 | 0.0 | 0.00 | 0.00 | 0.00 | 87 | 1025.5 |
| 20260502032804 | 3 | 97 | 0.0 | 0.0 | 0.00 | 0.00 | 0.00 | 87 | 1025.5 |
| 20260502032646 | 3 | 97 | 0.0 | 0.0 | 0.00 | 0.00 | 0.00 | 86 | 1025.5 |
| 20260502032409 | 3 | 97 | 0.0 | 0.0 | 0.00 | 0.00 | 0.00 | 86 | 1025.5 |
| 20260502032310 | 3 | 97 | 0.0 | 0.0 | 0.00 | 0.00 | 0.00 | 86 | 1025.5 |
| 20260502032216 | 3 | 97 | 0.0 | 0.0 | 0.00 | 0.00 | 0.00 | 86 | 1025.5 |
| 20260502032054 | 3 | 97 | 0.0 | 0.0 | 0.00 | 0.00 | 0.00 | 86 | 1025.5 |
| 20260502032031 | 3 | 97 | 0.0 | 0.0 | 0.00 | 0.00 | 0.00 | 86 | 1025.6 |
| 20260502031949 | 3 | 97 | 0.0 | 0.0 | 0.00 | 0.00 | 0.00 | 86 | 1025.5 |
| 20260502031851 | 3 | 97 | 0.0 | 0.0 | 0.00 | 0.00 | 0.00 | 86 | 1025.5 |
| 20260502031755 | 3 | 97 | 0.0 | 0.0 | 0.00 | 0.00 | 0.00 | 86 | 1025.5 |
| 20260502031650 | 3 | 97 | 0.0 | 0.0 | 0.00 | 0.00 | 0.00 | 86 | 1025.5 |
| 20260502031550 | 3 | 97 | 0.0 | 0.0 | 0.00 | 0.00 | 0.00 | 86 | 1025.5 |
| 20260502031457 | 3 | 97 | 0.0 | 0.0 | 0.00 | 0.00 | 0.00 | 86 | 1025.5 |
| 20260502031352 | 4 | 97 | 0.0 | 0.0 | 0.00 | 0.00 | 0.00 | 86 | 1025.5 |
| 20260502031255 | 4 | 97 | 0.0 | 0.0 | 0.00 | 0.00 | 0.00 | 85 | 1025.5 |
| 20260502031138 | 4 | 97 | 0.0 | 0.0 | 0.00 | 0.00 | 0.00 | 85 | 1025.5 |
| 20260502031018 | 4 | 97 | 0.0 | 0.0 | 0.00 | 0.00 | 0.00 | 86 | 1025.5 |
| 20260502030620 | 4 | 97 | 0.0 | 0.0 | 0.00 | 0.00 | 0.00 | 86 | 1025.5 |
| 20260502030554 | 3 | 97 | 0.0 | 0.0 | 0.00 | 0.00 | 0.00 | 86 | 1025.6 |
| 20260502030451 | 4 | 97 | 0.0 | 0.0 | 0.00 | 0.00 | 0.00 | 86 | 1025.5 |
| 20260502030331 | 4 | 97 | 0.0 | 0.0 | 0.00 | 0.00 | 0.00 | 86 | 1025.5 |
| 20260502030230 | 4 | 97 | 0.0 | 0.0 | 0.00 | 0.00 | 0.00 | 86 | 1025.6 |
| 20260502030138 | 3 | 97 | 0.0 | 0.0 | 0.00 | 0.00 | 0.00 | 86 | 1025.7 |
| 20260502030100 | 4 | 97 | 0.0 | 0.0 | 0.00 | 0.00 | 0.00 | 86 | 1025.6 |
| 20260502030004 | 4 | 97 | 0.0 | 0.0 | 0.00 | 0.00 | 0.00 | 86 | 1025.6 |
| 20260502025907 | 4 | 97 | 0.0 | 0.0 | 0.00 | 0.00 | 0.00 | 86 | 1025.6 |
| 20260502025805 | 4 | 97 | 0.0 | 0.0 | 0.00 | 0.00 | 0.00 | 86 | 1025.6 |
| 20260502025709 | 4 | 97 | 0.0 | 0.0 | 0.00 | 0.00 | 0.00 | 86 | 1025.6 |
| 20260502025609 | 4 | 97 | 0.0 | 0.0 | 0.00 | 0.00 | 0.00 | 86 | 1025.6 |
| 20260502025509 | 4 | 97 | 0.0 | 0.0 | 0.00 | 0.00 | 0.00 | 86 | 1025.6 |
| 20260502025404 | 4 | 97 | 0.0 | 0.0 | 0.00 | 0.00 | 0.00 | 86 | 1025.6 |
| 20260502025308 | 4 | 97 | 0.0 | 0.0 | 0.00 | 0.00 | 0.00 | 86 | 1025.6 |
| 20260502025214 | 4 | 97 | 0.0 | 0.0 | 0.00 | 0.00 | 0.00 | 86 | 1025.6 |
| 20260502025056 | 4 | 97 | 0.0 | 0.0 | 0.00 | 0.00 | 0.00 | 86 | 1025.6 |
| 20260502025032 | 4 | 97 | 0.0 | 0.0 | 0.00 | 0.00 | 0.00 | 86 | 1025.7 |
| 20260502024928 | 4 | 97 | 0.0 | 0.0 | 0.00 | 0.00 | 0.00 | 86 | 1025.6 |
| 20260502024830 | 4 | 97 | 0.0 | 0.0 | 0.00 | 0.00 | 0.00 | 86 | 1025.6 |
| 20260502024723 | 4 | 97 | 0.0 | 0.0 | 0.00 | 0.00 | 0.00 | 86 | 1025.6 |
| 20260502024607 | 4 | 97 | 0.0 | 0.0 | 0.00 | 0.00 | 0.00 | 86 | 1025.6 |
| 20260502024512 | 4 | 97 | 0.0 | 0.0 | 0.00 | 0.00 | 0.00 | 85 | 1025.6 |
| 20260502024344 | 4 | 97 | 0.0 | 0.0 | 0.00 | 0.00 | 0.00 | 85 | 1025.6 |
| 20260502024226 | 4 | 97 | 0.0 | 0.0 | 0.00 | 0.00 | 0.00 | 85 | 1025.6 |
| 20260502024129 | 4 | 97 | 0.0 | 0.0 | 0.00 | 0.00 | 0.00 | 85 | 1025.6 |
| 20260502024030 | 4 | 97 | 0.0 | 0.0 | 0.00 | 0.00 | 0.00 | 85 | 1025.6 |
| 20260502023902 | 4 | 97 | 0.0 | 0.0 | 0.00 | 0.00 | 0.00 | 85 | 1025.6 |
| 20260502023805 | 4 | 97 | 0.0 | 0.0 | 0.00 | 0.00 | 0.00 | 85 | 1025.6 |
| 20260502023651 | 4 | 97 | 0.0 | 0.0 | 0.00 | 0.00 | 0.00 | 84 | 1025.6 |
| 20260502023620 | 4 | 97 | 0.0 | 0.0 | 0.00 | 0.00 | 0.00 | 84 | 1025.7 |
| 20260502023541 | 4 | 97 | 0.0 | 0.0 | 0.00 | 0.00 | 0.00 | 84 | 1025.5 |
| 20260502023443 | 5 | 97 | 0.0 | 0.0 | 0.00 | 0.00 | 0.00 | 84 | 1025.5 |
| 20260502023324 | 5 | 97 | 0.0 | 0.0 | 0.00 | 0.00 | 0.00 | 84 | 1025.6 |
| 20260502023153 | 5 | 97 | 0.0 | 0.0 | 0.00 | 0.00 | 0.00 | 84 | 1025.6 |
| 20260502023054 | 5 | 97 | 0.0 | 0.0 | 0.00 | 0.00 | 0.00 | 83 | 1025.6 |
| 20260502023000 | 5 | 97 | 0.0 | 0.0 | 0.00 | 0.00 | 0.00 | 84 | 1025.6 |
| 20260502022904 | 5 | 97 | 0.0 | 0.0 | 0.00 | 0.00 | 0.00 | 84 | 1025.6 |
| 20260502022735 | 5 | 97 | 0.0 | 0.0 | 0.00 | 0.00 | 0.00 | 84 | 1025.6 |
| 20260502022640 | 5 | 97 | 0.0 | 0.0 | 0.00 | 0.00 | 0.00 | 84 | 1025.6 |
| 20260502022541 | 5 | 97 | 0.0 | 0.0 | 0.00 | 0.00 | 0.00 | 84 | 1025.6 |
| 20260502022517 | 4 | 97 | 0.0 | 0.0 | 0.00 | 0.00 | 0.00 | 84 | 1025.7 |
| 20260502022436 | 5 | 97 | 0.0 | 0.0 | 0.00 | 0.00 | 0.00 | 84 | 1025.6 |
| 20260502022338 | 5 | 97 | 0.0 | 0.0 | 0.00 | 0.00 | 0.00 | 84 | 1025.6 |
| 20260502022244 | 5 | 97 | 0.0 | 0.0 | 0.00 | 0.00 | 0.00 | 84 | 1025.6 |
| 20260502022140 | 5 | 97 | 0.0 | 0.0 | 0.00 | 0.00 | 0.00 | 84 | 1025.6 |
| 20260502022040 | 5 | 97 | 0.0 | 0.0 | 0.00 | 0.00 | 0.00 | 84 | 1025.6 |
| 20260502021942 | 5 | 97 | 0.0 | 0.0 | 0.00 | 0.00 | 0.00 | 84 | 1025.6 |
| 20260502021846 | 5 | 97 | 0.0 | 0.0 | 0.00 | 0.00 | 0.00 | 84 | 1025.6 |
| 20260502021657 | 5 | 97 | 0.0 | 0.0 | 0.00 | 0.00 | 0.00 | 84 | 1025.6 |
| 20260502021601 | 5 | 97 | 0.0 | 0.0 | 0.00 | 0.00 | 0.00 | 84 | 1025.6 |
| 20260502021504 | 5 | 97 | 0.0 | 0.0 | 0.00 | 0.00 | 0.00 | 84 | 1025.6 |
| 20260502021337 | 5 | 97 | 0.0 | 0.0 | 0.00 | 0.00 | 0.00 | 84 | 1025.6 |
| 20260502021238 | 5 | 97 | 0.0 | 0.0 | 0.00 | 0.00 | 0.00 | 84 | 1025.6 |
| 20260502021122 | 5 | 97 | 0.0 | 0.0 | 0.00 | 0.00 | 0.00 | 84 | 1025.6 |
| 20260502021048 | 5 | 97 | 0.0 | 0.0 | 0.00 | 0.00 | 0.00 | 84 | 1025.8 |
| 20260502021012 | 5 | 97 | 0.0 | 0.0 | 0.00 | 0.00 | 0.00 | 84 | 1025.6 |
| 20260502020916 | 5 | 97 | 0.0 | 0.0 | 0.00 | 0.00 | 0.00 | 84 | 1025.6 |
| 20260502020823 | 5 | 97 | 0.0 | 0.0 | 0.00 | 0.00 | 0.00 | 84 | 1025.6 |
| 20260502020727 | 5 | 97 | 0.0 | 0.0 | 0.00 | 0.00 | 0.00 | 84 | 1025.6 |
| 20260502020618 | 5 | 97 | 0.0 | 0.0 | 0.00 | 0.00 | 0.00 | 84 | 1025.7 |
| 20260502020501 | 5 | 97 | 0.0 | 0.0 | 0.00 | 0.00 | 0.00 | 84 | 1025.6 |
| 20260502020404 | 5 | 97 | 0.0 | 0.0 | 0.00 | 0.00 | 0.00 | 84 | 1025.7 |
| 20260502020258 | 5 | 97 | 0.0 | 0.0 | 0.00 | 0.00 | 0.00 | 84 | 1025.6 |
| 20260502020144 | 5 | 97 | 0.0 | 0.0 | 0.00 | 0.00 | 0.00 | 84 | 1025.6 |
| 20260502020043 | 5 | 97 | 0.0 | 0.0 | 0.00 | 0.00 | 0.00 | 84 | 1025.6 |
| 20260502020010 | 5 | 97 | 0.0 | 0.0 | 0.00 | 0.00 | 0.00 | 84 | 1025.8 |
| 20260502015936 | 5 | 97 | 0.0 | 0.0 | 0.00 | 0.00 | 0.00 | 84 | 1025.7 |
| 20260502015837 | 5 | 97 | 0.0 | 0.0 | 0.00 | 0.00 | 0.00 | 84 | 1025.7 |
| 20260502015740 | 5 | 97 | 0.0 | 0.0 | 0.00 | 0.00 | 0.00 | 84 | 1025.7 |
| 20260502015644 | 5 | 97 | 0.0 | 0.0 | 0.00 | 0.00 | 0.00 | 85 | 1025.7 |
| 20260502015621 | 5 | 97 | 0.0 | 0.0 | 0.00 | 0.00 | 0.00 | 85 | 1025.8 |
| 20260502015537 | 5 | 97 | 0.0 | 0.0 | 0.00 | 0.00 | 0.00 | 84 | 1025.7 |
| 20260502015444 | 5 | 97 | 0.0 | 0.0 | 0.00 | 0.00 | 0.00 | 84 | 1025.7 |
| 20260502015326 | 5 | 97 | 0.0 | 0.0 | 0.00 | 0.00 | 0.00 | 84 | 1025.7 |
| 20260502015220 | 5 | 97 | 0.0 | 0.0 | 0.00 | 0.00 | 0.00 | 84 | 1025.7 |
| 20260502015120 | 5 | 97 | 0.0 | 0.0 | 0.00 | 0.00 | 0.00 | 84 | 1025.7 |
| 20260502015002 | 5 | 97 | 0.0 | 0.0 | 0.00 | 0.00 | 0.00 | 84 | 1025.7 |
| 20260502014823 | 5 | 97 | 0.0 | 0.0 | 0.00 | 0.00 | 0.00 | 84 | 1025.8 |
| 20260502014720 | 5 | 97 | 0.0 | 0.0 | 0.00 | 0.00 | 0.00 | 84 | 1025.8 |
| 20260502014620 | 5 | 97 | 0.0 | 0.0 | 0.00 | 0.00 | 0.00 | 85 | 1025.7 |
| 20260502014503 | 5 | 97 | 0.0 | 0.0 | 0.00 | 0.00 | 0.00 | 85 | 1025.7 |
| 20260502014356 | 5 | 97 | 0.0 | 0.0 | 0.00 | 0.00 | 0.00 | 85 | 1025.7 |
| 20260502014259 | 5 | 97 | 0.0 | 0.0 | 0.00 | 0.00 | 0.00 | 85 | 1025.7 |
| 20260502014200 | 5 | 97 | 0.0 | 0.0 | 0.00 | 0.00 | 0.00 | 85 | 1025.7 |
| 20260502014101 | 5 | 97 | 0.0 | 0.0 | 0.00 | 0.00 | 0.00 | 85 | 1025.8 |
| 20260502014017 | 5 | 97 | 0.0 | 0.0 | 0.00 | 0.00 | 0.00 | 85 | 1025.9 |
| 20260502013914 | 5 | 97 | 0.0 | 0.0 | 0.00 | 0.00 | 0.00 | 85 | 1025.7 |
| 20260502013817 | 5 | 97 | 0.0 | 0.0 | 0.00 | 0.00 | 0.00 | 86 | 1025.7 |
| 20260502013720 | 5 | 97 | 0.0 | 0.0 | 0.00 | 0.00 | 0.00 | 85 | 1025.7 |
| 20260502013625 | 5 | 97 | 0.0 | 0.0 | 0.00 | 0.00 | 0.00 | 85 | 1025.8 |
| 20260502013529 | 5 | 97 | 0.0 | 0.0 | 0.00 | 0.00 | 0.00 | 85 | 1025.7 |
| 20260502013431 | 5 | 97 | 0.0 | 0.0 | 0.00 | 0.00 | 0.00 | 85 | 1025.7 |
| 20260502013335 | 5 | 97 | 0.0 | 0.0 | 0.00 | 0.00 | 0.00 | 85 | 1025.7 |
| 20260502013240 | 5 | 97 | 0.0 | 0.0 | 0.00 | 0.00 | 0.00 | 84 | 1025.7 |
| 20260502013134 | 5 | 97 | 0.0 | 0.0 | 0.00 | 0.00 | 0.00 | 84 | 1025.7 |
| 20260502013036 | 5 | 97 | 0.0 | 0.0 | 0.00 | 0.00 | 0.00 | 84 | 1025.7 |
| 20260502012940 | 5 | 97 | 0.0 | 0.0 | 0.00 | 0.00 | 0.00 | 84 | 1025.7 |
| 20260502012834 | 5 | 97 | 0.0 | 0.0 | 0.00 | 0.00 | 0.00 | 84 | 1025.7 |
| 20260502012738 | 5 | 97 | 0.0 | 0.0 | 0.00 | 0.00 | 0.00 | 84 | 1025.7 |
| 20260502012514 | 5 | 97 | 0.0 | 0.0 | 0.00 | 0.00 | 0.00 | 84 | 1025.8 |
| 20260502012406 | 5 | 97 | 0.0 | 0.0 | 0.00 | 0.00 | 0.00 | 84 | 1025.8 |
| 20260502012227 | 5 | 97 | 0.0 | 0.0 | 0.00 | 0.00 | 0.00 | 84 | 1025.8 |
| 20260502012122 | 5 | 97 | 0.0 | 0.0 | 0.00 | 0.00 | 0.00 | 84 | 1025.8 |
| 20260502012024 | 5 | 97 | 0.0 | 0.0 | 0.00 | 0.00 | 0.00 | 83 | 1025.7 |
| 20260502011906 | 5 | 97 | 0.0 | 0.0 | 0.00 | 0.00 | 0.00 | 83 | 1025.7 |
| 20260502011805 | 5 | 97 | 0.0 | 0.0 | 0.00 | 0.00 | 0.00 | 83 | 1025.8 |
| 20260502011708 | 5 | 97 | 0.0 | 0.0 | 0.00 | 0.00 | 0.00 | 83 | 1025.8 |
| 20260502011611 | 5 | 97 | 0.0 | 0.0 | 0.00 | 0.00 | 0.00 | 82 | 1025.8 |
| 20260502011512 | 5 | 97 | 0.0 | 0.0 | 0.00 | 0.00 | 0.00 | 82 | 1025.8 |
| 20260502011405 | 5 | 97 | 0.0 | 0.0 | 0.00 | 0.00 | 0.00 | 83 | 1025.8 |
| 20260502011308 | 5 | 97 | 0.0 | 0.0 | 0.00 | 0.00 | 0.00 | 83 | 1025.8 |
| 20260502011206 | 5 | 97 | 0.0 | 0.0 | 0.00 | 0.00 | 0.00 | 83 | 1025.8 |
| 20260502011113 | 5 | 97 | 0.0 | 0.0 | 0.00 | 0.00 | 0.00 | 83 | 1025.8 |
| 20260502011045 | 5 | 97 | 0.0 | 0.0 | 0.00 | 0.00 | 0.00 | 83 | 1025.9 |
| 20260502011004 | 5 | 97 | 0.0 | 0.0 | 0.00 | 0.00 | 0.00 | 83 | 1025.8 |
| 20260502010908 | 5 | 97 | 0.0 | 0.0 | 0.00 | 0.00 | 0.00 | 83 | 1025.8 |
| 20260502010811 | 5 | 97 | 0.0 | 0.0 | 0.00 | 0.00 | 0.00 | 83 | 1025.8 |
| 20260502010643 | 5 | 97 | 0.0 | 0.0 | 0.00 | 0.00 | 0.00 | 83 | 1025.8 |
| 20260502010542 | 5 | 97 | 0.0 | 0.0 | 0.00 | 0.00 | 0.00 | 83 | 1025.8 |
| 20260502010446 | 5 | 97 | 0.0 | 0.0 | 0.00 | 0.00 | 0.00 | 83 | 1025.9 |
| 20260502010354 | 5 | 97 | 0.0 | 0.0 | 0.00 | 0.00 | 0.00 | 82 | 1025.8 |
| 20260502010248 | 5 | 97 | 0.0 | 0.0 | 0.00 | 0.00 | 0.00 | 82 | 1025.8 |
| 20260502010149 | 5 | 97 | 0.0 | 0.0 | 0.00 | 0.00 | 0.00 | 82 | 1025.9 |
| 20260502010051 | 5 | 97 | 0.0 | 0.0 | 0.00 | 0.00 | 0.00 | 82 | 1025.9 |
| 20260502005956 | 5 | 97 | 0.0 | 0.0 | 0.00 | 0.00 | 0.00 | 82 | 1025.9 |
| 20260502005848 | 5 | 97 | 0.0 | 0.0 | 0.00 | 0.00 | 0.00 | 82 | 1025.9 |
| 20260502005756 | 5 | 97 | 0.0 | 0.0 | 0.00 | 0.00 | 0.00 | 82 | 1026.0 |
| 20260502005659 | 6 | 97 | 0.0 | 0.0 | 0.00 | 0.00 | 0.00 | 82 | 1025.9 |
| 20260502005623 | 5 | 97 | 0.0 | 0.0 | 0.00 | 0.00 | 0.00 | 83 | 1026.1 |
| 20260502005551 | 6 | 97 | 0.0 | 0.0 | 0.00 | 0.00 | 0.00 | 83 | 1025.9 |
| 20260502005454 | 6 | 97 | 0.0 | 0.0 | 0.00 | 0.00 | 0.00 | 83 | 1025.9 |
| 20260502005358 | 6 | 97 | 0.0 | 0.0 | 0.00 | 0.00 | 0.00 | 83 | 1026.0 |
| 20260502005305 | 6 | 97 | 0.0 | 0.0 | 0.00 | 0.00 | 0.00 | 83 | 1025.9 |
| 20260502005152 | 6 | 97 | 0.0 | 0.0 | 0.00 | 0.00 | 0.00 | 83 | 1026.0 |
| 20260502005036 | 6 | 97 | 0.0 | 0.0 | 0.00 | 0.00 | 0.00 | 83 | 1025.9 |
| 20260502004938 | 6 | 97 | 0.0 | 0.0 | 0.00 | 0.00 | 0.00 | 83 | 1025.9 |
| 20260502004833 | 6 | 97 | 0.0 | 0.0 | 0.00 | 0.00 | 0.00 | 83 | 1025.9 |
| 20260502004734 | 6 | 97 | 0.0 | 0.0 | 0.00 | 0.00 | 0.00 | 83 | 1026.0 |
| 20260502004638 | 6 | 97 | 0.0 | 0.0 | 0.00 | 0.00 | 0.00 | 83 | 1026.0 |
| 20260502004540 | 6 | 97 | 0.0 | 0.0 | 0.00 | 0.00 | 0.00 | 83 | 1026.0 |
| 20260502004518 | 5 | 97 | 0.0 | 0.0 | 0.00 | 0.00 | 0.00 | 83 | 1026.1 |
| 20260502004438 | 6 | 97 | 0.0 | 0.0 | 0.00 | 0.00 | 0.00 | 83 | 1026.0 |
| 20260502004341 | 6 | 97 | 0.0 | 0.0 | 0.00 | 0.00 | 0.00 | 83 | 1026.0 |
| 20260502004223 | 6 | 97 | 0.0 | 0.0 | 0.00 | 0.00 | 0.00 | 82 | 1026.0 |
| 20260502004153 | 5 | 97 | 0.0 | 0.0 | 0.00 | 0.00 | 0.00 | 82 | 1026.1 |
| 20260502004119 | 6 | 97 | 0.0 | 0.0 | 0.00 | 0.00 | 0.00 | 82 | 1026.0 |
| 20260502004020 | 6 | 97 | 0.0 | 0.0 | 0.00 | 0.00 | 0.00 | 82 | 1026.0 |
| 20260502003923 | 6 | 97 | 0.0 | 0.0 | 0.00 | 0.00 | 0.00 | 82 | 1025.9 |
| 20260502003815 | 6 | 97 | 0.0 | 0.0 | 0.00 | 0.00 | 0.00 | 82 | 1026.0 |
| 20260502003722 | 6 | 97 | 0.0 | 0.0 | 0.00 | 0.00 | 0.00 | 81 | 1026.0 |
| 20260502003540 | 6 | 97 | 0.0 | 0.0 | 0.00 | 0.00 | 0.00 | 81 | 1026.0 |
| 20260502003305 | 6 | 97 | 0.0 | 0.0 | 0.00 | 0.00 | 0.00 | 80 | 1026.0 |
| 20260502003206 | 6 | 97 | 0.0 | 0.0 | 0.00 | 0.00 | 0.00 | 80 | 1026.0 |
| 20260502003108 | 6 | 97 | 0.0 | 0.0 | 0.00 | 0.00 | 0.00 | 80 | 1025.9 |
| 20260502003037 | 5 | 97 | 0.0 | 0.0 | 0.00 | 0.00 | 0.00 | 80 | 1026.2 |
| 20260502003001 | 6 | 97 | 0.0 | 0.0 | 0.00 | 0.00 | 0.00 | 80 | 1026.0 |
| 20260502002908 | 6 | 97 | 0.0 | 0.0 | 0.00 | 0.00 | 0.00 | 80 | 1026.0 |
| 20260502002811 | 6 | 97 | 0.0 | 0.0 | 0.00 | 0.00 | 0.00 | 80 | 1026.0 |
| 20260502002706 | 6 | 97 | 0.0 | 0.0 | 0.00 | 0.00 | 0.00 | 80 | 1026.0 |
| 20260502002546 | 6 | 97 | 0.0 | 0.0 | 0.00 | 0.00 | 0.00 | 80 | 1026.0 |
| 20260502002449 | 6 | 97 | 0.0 | 0.0 | 0.00 | 0.00 | 0.00 | 80 | 1026.0 |
| 20260502002352 | 6 | 97 | 0.0 | 0.0 | 0.00 | 0.00 | 0.00 | 80 | 1026.0 |
| 20260502002251 | 6 | 97 | 0.0 | 0.0 | 0.00 | 0.00 | 0.00 | 81 | 1026.0 |
| 20260502002134 | 6 | 97 | 0.0 | 0.0 | 0.00 | 0.00 | 0.00 | 81 | 1026.0 |
| 20260502002036 | 6 | 97 | 0.0 | 0.0 | 0.00 | 0.00 | 0.00 | 81 | 1026.0 |
| 20260502002003 | 6 | 97 | 0.0 | 0.0 | 0.00 | 0.00 | 0.00 | 81 | 1026.2 |
| 20260502001930 | 6 | 97 | 0.0 | 0.0 | 0.00 | 0.00 | 0.00 | 81 | 1026.0 |
| 20260502001832 | 6 | 97 | 0.0 | 0.0 | 0.00 | 0.00 | 0.00 | 81 | 1026.0 |
| 20260502001653 | 6 | 97 | 0.0 | 0.0 | 0.00 | 0.00 | 0.00 | 81 | 1026.0 |
| 20260502001532 | 6 | 97 | 0.0 | 0.0 | 0.00 | 0.00 | 0.00 | 82 | 1026.0 |
| 20260502001511 | 6 | 97 | 0.0 | 0.0 | 0.00 | 0.00 | 0.00 | 82 | 1026.2 |
| 20260502001430 | 6 | 97 | 0.0 | 0.0 | 0.00 | 0.00 | 0.00 | 82 | 1026.1 |
| 20260502001333 | 6 | 97 | 0.0 | 0.0 | 0.00 | 0.00 | 0.00 | 82 | 1026.0 |
| 20260502001236 | 6 | 97 | 0.0 | 0.0 | 0.00 | 0.00 | 0.00 | 82 | 1026.0 |
| 20260502001131 | 6 | 97 | 0.0 | 0.0 | 0.00 | 0.00 | 0.00 | 82 | 1026.0 |
| 20260502001031 | 6 | 97 | 0.0 | 0.0 | 0.00 | 0.00 | 0.00 | 82 | 1026.1 |
| 20260502000933 | 6 | 97 | 0.0 | 0.0 | 0.00 | 0.00 | 0.00 | 82 | 1026.1 |
| 20260502000841 | 6 | 97 | 0.0 | 0.0 | 0.00 | 0.00 | 0.00 | 82 | 1026.0 |
| 20260502000714 | 6 | 97 | 0.0 | 0.0 | 0.00 | 0.00 | 0.00 | 82 | 1026.1 |
| 20260502000618 | 6 | 97 | 0.0 | 0.0 | 0.00 | 0.00 | 0.00 | 81 | 1026.1 |
| 20260502000519 | 6 | 97 | 0.0 | 0.0 | 0.00 | 0.00 | 0.00 | 81 | 1026.1 |
| 20260502000412 | 6 | 97 | 0.0 | 0.0 | 0.00 | 0.00 | 0.00 | 81 | 1026.0 |
| 20260502000317 | 6 | 97 | 0.0 | 0.0 | 0.00 | 0.00 | 0.00 | 81 | 1026.1 |
| 20260502000049 | 6 | 97 | 0.0 | 0.0 | 0.00 | 0.00 | 0.00 | 80 | 1026.1 |
| 20260502000038 | 6 | 97 | 0.0 | 0.0 | 0.00 | 0.00 | 0.00 | 80 | 1026.2 |
| 20260501235942 | 6 | 97 | 0.0 | 0.0 | 0.00 | 0.00 | 0.00 | 79 | 1026.0 |
| 20260501235846 | 6 | 97 | 0.0 | 0.0 | 0.00 | 0.00 | 0.00 | 79 | 1026.1 |
| 20260501235749 | 6 | 97 | 0.0 | 0.0 | 0.00 | 0.00 | 0.00 | 78 | 1026.1 |
| 20260501235643 | 6 | 97 | 0.0 | 0.0 | 0.00 | 0.00 | 0.00 | 78 | 1026.1 |
| 20260501235544 | 6 | 97 | 0.0 | 0.0 | 0.00 | 0.00 | 0.00 | 77 | 1026.1 |
| 20260501235448 | 6 | 97 | 0.0 | 0.0 | 0.00 | 0.00 | 0.00 | 77 | 1026.1 |
| 20260501235354 | 6 | 97 | 0.0 | 0.0 | 0.00 | 0.00 | 0.00 | 77 | 1026.1 |
| 20260501235226 | 6 | 97 | 0.0 | 0.0 | 0.00 | 0.00 | 0.00 | 77 | 1026.2 |
| 20260501235104 | 6 | 97 | 0.0 | 0.0 | 0.00 | 0.00 | 0.00 | 77 | 1026.2 |
| 20260501234947 | 6 | 97 | 0.0 | 0.0 | 0.00 | 0.00 | 0.00 | 77 | 1026.2 |
| 20260501234819 | 6 | 97 | 0.0 | 0.0 | 0.00 | 0.00 | 0.00 | 77 | 1026.1 |
| 20260501234721 | 6 | 97 | 0.0 | 0.0 | 0.00 | 0.00 | 0.00 | 77 | 1026.1 |
| 20260501234543 | 7 | 97 | 0.0 | 0.0 | 0.00 | 0.00 | 0.00 | 77 | 1026.1 |
| 20260501234309 | 7 | 97 | 0.0 | 0.0 | 0.00 | 0.00 | 0.00 | 77 | 1026.1 |
| 20260501234209 | 7 | 97 | 0.0 | 0.0 | 0.00 | 0.00 | 0.00 | 77 | 1026.2 |
| 20260501234050 | 7 | 97 | 0.0 | 0.0 | 0.00 | 0.00 | 0.00 | 77 | 1026.2 |
| 20260501234021 | 6 | 97 | 0.0 | 0.0 | 0.00 | 0.00 | 0.00 | 77 | 1026.4 |
| 20260501233945 | 7 | 97 | 0.0 | 0.0 | 0.00 | 0.00 | 0.00 | 77 | 1026.1 |
| 20260501233848 | 7 | 97 | 0.0 | 0.0 | 0.00 | 0.00 | 0.00 | 77 | 1026.1 |
| 20260501233755 | 7 | 97 | 0.0 | 0.0 | 0.00 | 0.00 | 0.00 | 77 | 1026.1 |
| 20260501233700 | 7 | 97 | 0.0 | 0.0 | 0.00 | 0.00 | 0.00 | 77 | 1026.1 |
| 20260501233631 | 6 | 97 | 0.0 | 0.0 | 0.00 | 0.00 | 0.00 | 77 | 1026.3 |
| 20260501233550 | 7 | 97 | 0.0 | 0.0 | 0.00 | 0.00 | 0.00 | 78 | 1026.1 |
| 20260501233432 | 7 | 97 | 0.0 | 0.0 | 0.00 | 0.00 | 0.00 | 78 | 1026.2 |
| 20260501233315 | 7 | 97 | 0.0 | 0.0 | 0.00 | 0.00 | 0.00 | 78 | 1026.2 |
| 20260501233219 | 7 | 97 | 0.0 | 0.0 | 0.00 | 0.00 | 0.00 | 78 | 1026.2 |
| 20260501233135 | 7 | 97 | 0.0 | 0.0 | 0.00 | 0.00 | 0.00 | 78 | 1026.4 |
| 20260501233047 | 7 | 97 | 0.0 | 0.0 | 0.00 | 0.00 | 0.00 | 78 | 1026.2 |
| 20260501232955 | 7 | 97 | 0.0 | 0.0 | 0.00 | 0.00 | 0.00 | 78 | 1026.2 |
| 20260501232857 | 7 | 97 | 0.0 | 0.0 | 0.00 | 0.00 | 0.00 | 78 | 1026.2 |
| 20260501232751 | 7 | 97 | 0.0 | 0.0 | 0.00 | 0.00 | 0.00 | 78 | 1026.2 |